Observation data for Amarillo 7 South Southeast on 01/17/2021      Previous  Date  Next       Current Mesonet Observations  Soil Data  Daily Summary Page  Observations in Plain Language
KAM1 170600Z 32006KT M01/M04 A3012 RMK A01 T10141043  RH  081%=      5-min Rain = 0
KAM1 170601Z 31006KT M01/M04 A3012 RMK A01 T10131044  RH  080%=      5-min Rain = 0
KAM1 170602Z 31006KT M01/M05 A3012 RMK A01 T10141046  RH  079%=      5-min Rain = 0
KAM1 170603Z 32007KT M02/M05 A3012 RMK A01 T10151046  RH  079%=      5-min Rain = 0
KAM1 170604Z 32007KT M01/M04 A3012 RMK A01 T10141044  RH  080%=      5-min Rain = 0
KAM1 170605Z 32006KT M01/M04 A3012 RMK A01 T10141044  RH  080%=      5-min Rain = 0
KAM1 170606Z 32006KT M01/M04 A3012 RMK A01 T10141044  RH  080%=      5-min Rain = 0
KAM1 170607Z 33006KT M02/M05 A3012 RMK A01 T10151046  RH  079%=      5-min Rain = 0
KAM1 170608Z 33006KT M02/M05 A3012 RMK A01 T10191052  RH  078%=      5-min Rain = 0
KAM1 170609Z 33007KT M02/M05 A3012 RMK A01 T10201048  RH  081%=      5-min Rain = 0
KAM1 170610Z 33007KT M02/M05 A3012 RMK A01 T10191047  RH  081%=      5-min Rain = 0
KAM1 170611Z 33007KT M02/M05 A3012 RMK A01 T10191048  RH  081%=      5-min Rain = 0
KAM1 170612Z 33007KT M02/M05 A3012 RMK A01 T10201049  RH  081%=      5-min Rain = 0
KAM1 170613Z 33007KT M02/M05 A3012 RMK A01 T10211048  RH  082%=      5-min Rain = 0
KAM1 170614Z 33007KT M02/M05 A3012 RMK A01 T10211048  RH  082%=      5-min Rain = 0
KAM1 170615Z 33007KT M02/M05 A3012 RMK A01 T10201045  RH  083%=      5-min Rain = 0
KAM1 170616Z 33007KT M02/M04 A3012 RMK A01 T10171041  RH  084%=      5-min Rain = 0
KAM1 170617Z 34007KT M02/M04 A3012 RMK A01 T10151042  RH  082%=      5-min Rain = 0
KAM1 170618Z 34007KT M02/M05 A3012 RMK A01 T10161046  RH  080%=      5-min Rain = 0
KAM1 170619Z 34007KT M02/M05 A3012 RMK A01 T10171046  RH  080%=      5-min Rain = 0
KAM1 170620Z 34008KT M02/M05 A3012 RMK A01 T10171047  RH  080%=      5-min Rain = 0
KAM1 170621Z 35007KT M02/M05 A3012 RMK A01 T10191049  RH  080%=      5-min Rain = 0
KAM1 170622Z 34008KT M02/M05 A3012 RMK A01 T10211050  RH  080%=      5-min Rain = 0
KAM1 170623Z 34008KT M02/M05 A3012 RMK A01 T10211046  RH  083%=      5-min Rain = 0
KAM1 170624Z 34008KT M02/M05 A3012 RMK A01 T10201047  RH  082%=      5-min Rain = 0
KAM1 170625Z 34009KT M02/M05 A3012 RMK A01 T10201046  RH  082%=      5-min Rain = 0
KAM1 170626Z 34009KT M02/M05 A3012 RMK A01 T10201045  RH  083%=      5-min Rain = 0
KAM1 170627Z 34008KT M02/M04 A3012 RMK A01 T10181043  RH  083%=      5-min Rain = 0
KAM1 170628Z 34009KT M02/M04 A3012 RMK A01 T10161042  RH  083%=      5-min Rain = 0
KAM1 170629Z 34009KT M02/M04 A3012 RMK A01 T10151042  RH  082%=      5-min Rain = 0
KAM1 170630Z 34008KT M01/M04 A3012 RMK A01 T10141041  RH  082%=      5-min Rain = 0
KAM1 170631Z 34008KT M01/M04 A3012 RMK A01 T10131041  RH  081%=      5-min Rain = 0
KAM1 170632Z 34008KT M01/M04 A3012 RMK A01 T10131041  RH  081%=      5-min Rain = 0
KAM1 170633Z 34008KT M01/M04 A3012 RMK A01 T10121040  RH  081%=      5-min Rain = 0
KAM1 170634Z 34008KT M01/M04 A3012 RMK A01 T10111039  RH  081%=      5-min Rain = 0
KAM1 170635Z 34007KT M01/M04 A3012 RMK A01 T10101040  RH  080%=      5-min Rain = 0
KAM1 170636Z 34007KT M01/M04 A3012 RMK A01 T10111042  RH  080%=      5-min Rain = 0
KAM1 170637Z 34007KT M01/M04 A3012 RMK A01 T10111042  RH  080%=      5-min Rain = 0
KAM1 170638Z 34007KT M01/M04 A3012 RMK A01 T10121041  RH  080%=      5-min Rain = 0
KAM1 170639Z 34007KT M01/M04 A3012 RMK A01 T10121040  RH  081%=      5-min Rain = 0
KAM1 170640Z 34007KT M01/M04 A3012 RMK A01 T10111039  RH  081%=      5-min Rain = 0
KAM1 170641Z 34007KT M01/M04 A3012 RMK A01 T10101039  RH  080%=      5-min Rain = 0
KAM1 170642Z 34007KT M01/M04 A3012 RMK A01 T10091039  RH  080%=      5-min Rain = 0
KAM1 170643Z 34007KT M01/M04 A3012 RMK A01 T10081039  RH  080%=      5-min Rain = 0
KAM1 170644Z 34007KT M01/M04 A3012 RMK A01 T10071040  RH  079%=      5-min Rain = 0
KAM1 170645Z 34007KT M01/M04 A3012 RMK A01 T10081042  RH  078%=      5-min Rain = 0
KAM1 170646Z 34007KT M01/M04 A3012 RMK A01 T10091044  RH  077%=      5-min Rain = 0
KAM1 170647Z 34008KT M01/M05 A3012 RMK A01 T10131049  RH  077%=      5-min Rain = 0
KAM1 170648Z 34007KT M02/M05 A3012 RMK A01 T10161050  RH  077%=      5-min Rain = 0
KAM1 170649Z 34007KT M02/M05 A3012 RMK A01 T10171050  RH  078%=      5-min Rain = 0
KAM1 170650Z 34008KT M02/M05 A3012 RMK A01 T10181050  RH  079%=      5-min Rain = 0
KAM1 170651Z 34007KT M02/M05 A3012 RMK A01 T10191049  RH  080%=      5-min Rain = 0
KAM1 170652Z 34007KT M02/M05 A3012 RMK A01 T10191048  RH  080%=      5-min Rain = 0
KAM1 170653Z 33007KT M02/M05 A3012 RMK A01 T10191049  RH  080%=      5-min Rain = 0
KAM1 170654Z 33007KT M02/M05 A3012 RMK A01 T10191047  RH  081%=      5-min Rain = 0
KAM1 170655Z 33006KT M02/M05 A3013 RMK A01 T10191045  RH  082%=      5-min Rain = 0
KAM1 170656Z 32006KT M02/M05 A3013 RMK A01 T10181045  RH  082%=      5-min Rain = 0
KAM1 170657Z 33007KT M02/M05 A3013 RMK A01 T10181046  RH  081%=      5-min Rain = 0
KAM1 170658Z 33006KT M02/M05 A3013 RMK A01 T10201049  RH  080%=      5-min Rain = 0
KAM1 170659Z 33007KT M02/M05 A3013 RMK A01 T10211049  RH  081%=      5-min Rain = 0
KAM1 170700Z 33007KT M02/M05 A3013 RMK A01 T10211047  RH  083%=      5-min Rain = 0
KAM1 170701Z 33007KT M02/M04 A3012 RMK A01 T10201043  RH  084%=      5-min Rain = 0
KAM1 170702Z 33007KT M02/M04 A3012 RMK A01 T10171039  RH  085%=      5-min Rain = 0
KAM1 170703Z 33007KT M02/M04 A3012 RMK A01 T10151039  RH  083%=      5-min Rain = 0
KAM1 170704Z 33007KT M01/M04 A3012 RMK A01 T10131040  RH  082%=      5-min Rain = 0
KAM1 170705Z 33007KT M01/M04 A3013 RMK A01 T10121040  RH  081%=      5-min Rain = 0
KAM1 170706Z 33006KT M01/M04 A3013 RMK A01 T10111041  RH  080%=      5-min Rain = 0
KAM1 170707Z 33006KT M01/M04 A3013 RMK A01 T10091040  RH  080%=      5-min Rain = 0
KAM1 170708Z 32006KT M01/M04 A3013 RMK A01 T10081040  RH  079%=      5-min Rain = 0
KAM1 170709Z 32007KT M01/M04 A3013 RMK A01 T10081043  RH  078%=      5-min Rain = 0
KAM1 170710Z 32007KT M01/M05 A3013 RMK A01 T10121048  RH  077%=      5-min Rain = 0
KAM1 170711Z 32007KT M02/M05 A3013 RMK A01 T10161052  RH  077%=      5-min Rain = 0
KAM1 170712Z 32007KT M02/M05 A3013 RMK A01 T10191052  RH  078%=      5-min Rain = 0
KAM1 170713Z 32007KT M02/M05 A3012 RMK A01 T10201050  RH  080%=      5-min Rain = 0
KAM1 170714Z 32007KT M02/M05 A3012 RMK A01 T10201049  RH  080%=      5-min Rain = 0
KAM1 170715Z 32007KT M02/M05 A3012 RMK A01 T10191048  RH  081%=      5-min Rain = 0
KAM1 170716Z 32007KT M02/M05 A3012 RMK A01 T10181046  RH  081%=      5-min Rain = 0
KAM1 170717Z 32007KT M02/M05 A3012 RMK A01 T10171046  RH  081%=      5-min Rain = 0
KAM1 170718Z 32007KT M02/M05 A3012 RMK A01 T10161046  RH  080%=      5-min Rain = 0
KAM1 170719Z 32007KT M02/M05 A3012 RMK A01 T10171047  RH  080%=      5-min Rain = 0
KAM1 170720Z 32006KT M02/M05 A3012 RMK A01 T10171045  RH  081%=      5-min Rain = 0
KAM1 170721Z 32006KT M02/M04 A3012 RMK A01 T10151042  RH  082%=      5-min Rain = 0
KAM1 170722Z 32007KT M01/M04 A3012 RMK A01 T10131041  RH  081%=      5-min Rain = 0
KAM1 170723Z 32007KT M01/M04 A3013 RMK A01 T10121042  RH  080%=      5-min Rain = 0
KAM1 170724Z 32007KT M01/M04 A3013 RMK A01 T10121044  RH  079%=      5-min Rain = 0
KAM1 170725Z 32007KT M01/M05 A3013 RMK A01 T10131045  RH  079%=      5-min Rain = 0
KAM1 170726Z 32007KT M02/M05 A3013 RMK A01 T10151047  RH  079%=      5-min Rain = 0
KAM1 170727Z 32008KT M02/M05 A3013 RMK A01 T10151046  RH  080%=      5-min Rain = 0
KAM1 170728Z 32007KT M02/M05 A3013 RMK A01 T10151046  RH  080%=      5-min Rain = 0
KAM1 170729Z 32007KT M02/M05 A3013 RMK A01 T10161047  RH  079%=      5-min Rain = 0
KAM1 170730Z 32008KT M02/M05 A3013 RMK A01 T10191050  RH  079%=      5-min Rain = 0
KAM1 170731Z 33007KT M02/M05 A3013 RMK A01 T10221054  RH  079%=      5-min Rain = 0
KAM1 170732Z 33007KT M03/M06 A3013 RMK A01 T10261058  RH  079%=      5-min Rain = 0
KAM1 170733Z 33007KT M03/M06 A3013 RMK A01 T10301060  RH  080%=      5-min Rain = 0
KAM1 170734Z 33007KT M03/M06 A3013 RMK A01 T10321058  RH  082%=      5-min Rain = 0
KAM1 170735Z 33007KT M03/M06 A3013 RMK A01 T10321055  RH  084%=      5-min Rain = 0
KAM1 170736Z 33007KT M03/M06 A3013 RMK A01 T10321057  RH  083%=      5-min Rain = 0
KAM1 170737Z 33007KT M03/M06 A3013 RMK A01 T10341060  RH  083%=      5-min Rain = 0
KAM1 170738Z 33006KT M04/M06 A3013 RMK A01 T10361059  RH  084%=      5-min Rain = 0
KAM1 170739Z 34006KT M04/M06 A3013 RMK A01 T10361055  RH  087%=      5-min Rain = 0
KAM1 170740Z 34007KT M03/M05 A3013 RMK A01 T10331048  RH  090%=      5-min Rain = 0
KAM1 170741Z 34007KT M03/M04 A3013 RMK A01 T10281041  RH  091%=      5-min Rain = 0
KAM1 170742Z 34007KT M03/M04 A3013 RMK A01 T10251041  RH  088%=      5-min Rain = 0
KAM1 170743Z 34007KT M02/M04 A3013 RMK A01 T10231043  RH  086%=      5-min Rain = 0
KAM1 170744Z 34007KT M02/M05 A3013 RMK A01 T10231046  RH  084%=      5-min Rain = 0
KAM1 170745Z 33008KT M02/M05 A3013 RMK A01 T10231046  RH  084%=      5-min Rain = 0
KAM1 170746Z 34007KT M02/M05 A3013 RMK A01 T10221046  RH  084%=      5-min Rain = 0
KAM1 170747Z 34008KT M02/M05 A3013 RMK A01 T10221047  RH  083%=      5-min Rain = 0
KAM1 170748Z 34008KT M02/M05 A3013 RMK A01 T10221048  RH  083%=      5-min Rain = 0
KAM1 170749Z 34009KT M02/M05 A3014 RMK A01 T10231048  RH  083%=      5-min Rain = 0
KAM1 170750Z 34009KT M02/M05 A3014 RMK A01 T10221047  RH  083%=      5-min Rain = 0
KAM1 170751Z 34009KT M02/M05 A3014 RMK A01 T10211046  RH  083%=      5-min Rain = 0
KAM1 170752Z 34008KT M02/M05 A3014 RMK A01 T10191047  RH  082%=      5-min Rain = 0
KAM1 170753Z 34008KT M02/M05 A3014 RMK A01 T10191048  RH  081%=      5-min Rain = 0
KAM1 170754Z 34007KT M02/M05 A3014 RMK A01 T10191049  RH  080%=      5-min Rain = 0
KAM1 170755Z 34007KT M02/M05 A3014 RMK A01 T10201049  RH  080%=      5-min Rain = 0
KAM1 170756Z 34007KT M02/M05 A3014 RMK A01 T10201050  RH  080%=      5-min Rain = 0
KAM1 170757Z 34007KT M02/M05 A3014 RMK A01 T10211051  RH  080%=      5-min Rain = 0
KAM1 170758Z 34006KT M02/M05 A3014 RMK A01 T10221051  RH  081%=      5-min Rain = 0
KAM1 170759Z 33007KT M02/M05 A3014 RMK A01 T10211049  RH  081%=      5-min Rain = 0
KAM1 170800Z 33007KT M02/M05 A3014 RMK A01 T10211049  RH  081%=      5-min Rain = 0
KAM1 170801Z 33007KT M02/M05 A3014 RMK A01 T10211050  RH  081%=      5-min Rain = 0
KAM1 170802Z 34007KT M02/M05 A3014 RMK A01 T10231052  RH  080%=      5-min Rain = 0
KAM1 170803Z 33007KT M02/M05 A3014 RMK A01 T10241052  RH  081%=      5-min Rain = 0
KAM1 170804Z 33007KT M02/M05 A3014 RMK A01 T10241052  RH  081%=      5-min Rain = 0
KAM1 170805Z 33007KT M02/M05 A3014 RMK A01 T10241053  RH  081%=      5-min Rain = 0
KAM1 170806Z 33007KT M03/M06 A3014 RMK A01 T10261055  RH  080%=      5-min Rain = 0
KAM1 170807Z 33007KT M03/M06 A3014 RMK A01 T10271056  RH  080%=      5-min Rain = 0
KAM1 170808Z 33007KT M03/M06 A3014 RMK A01 T10281056  RH  081%=      5-min Rain = 0
KAM1 170809Z 33007KT M03/M06 A3014 RMK A01 T10281056  RH  081%=      5-min Rain = 0
KAM1 170810Z 33007KT M03/M06 A3014 RMK A01 T10291055  RH  082%=      5-min Rain = 0
KAM1 170811Z 33007KT M03/M06 A3014 RMK A01 T10291055  RH  083%=      5-min Rain = 0
KAM1 170812Z 33007KT M03/M05 A3014 RMK A01 T10291053  RH  084%=      5-min Rain = 0
KAM1 170813Z 33007KT M03/M05 A3014 RMK A01 T10301053  RH  084%=      5-min Rain = 0
KAM1 170814Z 33007KT M03/M05 A3014 RMK A01 T10291053  RH  084%=      5-min Rain = 0
KAM1 170815Z 33007KT M03/M05 A3014 RMK A01 T10291052  RH  084%=      5-min Rain = 0
KAM1 170816Z 33007KT M03/M05 A3014 RMK A01 T10281051  RH  084%=      5-min Rain = 0
KAM1 170817Z 33006KT M03/M05 A3014 RMK A01 T10271050  RH  084%=      5-min Rain = 0
KAM1 170818Z 33007KT M03/M05 A3014 RMK A01 T10261050  RH  084%=      5-min Rain = 0
KAM1 170819Z 33007KT M03/M05 A3014 RMK A01 T10261051  RH  083%=      5-min Rain = 0
KAM1 170820Z 33007KT M03/M05 A3014 RMK A01 T10251051  RH  083%=      5-min Rain = 0
KAM1 170821Z 33007KT M03/M05 A3014 RMK A01 T10251052  RH  082%=      5-min Rain = 0
KAM1 170822Z 34007KT M03/M05 A3014 RMK A01 T10261052  RH  082%=      5-min Rain = 0
KAM1 170823Z 34007KT M03/M05 A3014 RMK A01 T10271053  RH  082%=      5-min Rain = 0
KAM1 170824Z 34007KT M03/M05 A3014 RMK A01 T10271054  RH  082%=      5-min Rain = 0
KAM1 170825Z 34007KT M03/M05 A3014 RMK A01 T10271053  RH  083%=      5-min Rain = 0
KAM1 170826Z 34007KT M03/M05 A3014 RMK A01 T10271053  RH  082%=      5-min Rain = 0
KAM1 170827Z 34006KT M03/M05 A3014 RMK A01 T10271054  RH  082%=      5-min Rain = 0
KAM1 170828Z 34006KT M03/M05 A3014 RMK A01 T10271054  RH  082%=      5-min Rain = 0
KAM1 170829Z 34006KT M03/M05 A3014 RMK A01 T10271054  RH  082%=      5-min Rain = 0
KAM1 170830Z 34006KT M03/M05 A3014 RMK A01 T10271053  RH  082%=      5-min Rain = 0
KAM1 170831Z 34006KT M03/M05 A3014 RMK A01 T10271052  RH  083%=      5-min Rain = 0
KAM1 170832Z 34007KT M03/M05 A3014 RMK A01 T10251051  RH  083%=      5-min Rain = 0
KAM1 170833Z 34007KT M02/M05 A3014 RMK A01 T10241051  RH  082%=      5-min Rain = 0
KAM1 170834Z 34007KT M02/M05 A3014 RMK A01 T10241052  RH  081%=      5-min Rain = 0
KAM1 170835Z 34007KT M02/M05 A3014 RMK A01 T10231052  RH  081%=      5-min Rain = 0
KAM1 170836Z 34007KT M02/M05 A3014 RMK A01 T10241054  RH  080%=      5-min Rain = 0
KAM1 170837Z 34007KT M03/M06 A3013 RMK A01 T10251055  RH  080%=      5-min Rain = 0
KAM1 170838Z 34007KT M03/M06 A3013 RMK A01 T10261055  RH  080%=      5-min Rain = 0
KAM1 170839Z 34006KT M03/M06 A3013 RMK A01 T10271056  RH  080%=      5-min Rain = 0
KAM1 170840Z 34006KT M03/M06 A3013 RMK A01 T10291059  RH  080%=      5-min Rain = 0
KAM1 170841Z 34006KT M03/M06 A3013 RMK A01 T10301058  RH  081%=      5-min Rain = 0
KAM1 170842Z 34006KT M03/M06 A3013 RMK A01 T10301058  RH  081%=      5-min Rain = 0
KAM1 170843Z 34006KT M03/M06 A3013 RMK A01 T10301058  RH  081%=      5-min Rain = 0
KAM1 170844Z 34006KT M03/M06 A3013 RMK A01 T10301057  RH  081%=      5-min Rain = 0
KAM1 170845Z 34006KT M03/M06 A3013 RMK A01 T10291057  RH  081%=      5-min Rain = 0
KAM1 170846Z 34005KT M03/M06 A3013 RMK A01 T10291057  RH  081%=      5-min Rain = 0
KAM1 170847Z 34005KT M03/M06 A3013 RMK A01 T10291057  RH  081%=      5-min Rain = 0
KAM1 170848Z 34005KT M03/M06 A3013 RMK A01 T10281055  RH  082%=      5-min Rain = 0
KAM1 170849Z 34005KT M03/M05 A3013 RMK A01 T10271054  RH  082%=      5-min Rain = 0
KAM1 170850Z 34005KT M03/M05 A3014 RMK A01 T10251053  RH  081%=      5-min Rain = 0
KAM1 170851Z 33006KT M02/M05 A3013 RMK A01 T10241052  RH  081%=      5-min Rain = 0
KAM1 170852Z 33006KT M02/M05 A3013 RMK A01 T10221051  RH  080%=      5-min Rain = 0
KAM1 170853Z 34006KT M02/M05 A3013 RMK A01 T10201052  RH  079%=      5-min Rain = 0
KAM1 170854Z 34005KT M02/M05 A3013 RMK A01 T10201053  RH  078%=      5-min Rain = 0
KAM1 170855Z 33005KT M02/M05 A3013 RMK A01 T10211054  RH  078%=      5-min Rain = 0
KAM1 170856Z 33005KT M02/M05 A3013 RMK A01 T10211054  RH  078%=      5-min Rain = 0
KAM1 170857Z 33005KT M02/M05 A3013 RMK A01 T10211054  RH  078%=      5-min Rain = 0
KAM1 170858Z 33005KT M02/M05 A3014 RMK A01 T10211054  RH  078%=      5-min Rain = 0
KAM1 170859Z 33006KT M02/M05 A3014 RMK A01 T10211054  RH  078%=      5-min Rain = 0
KAM1 170900Z 33005KT M02/M05 A3014 RMK A01 T10211054  RH  078%=      5-min Rain = 0
KAM1 170901Z 33005KT M02/M05 A3014 RMK A01 T10211053  RH  078%=      5-min Rain = 0
KAM1 170902Z 33005KT M02/M05 A3014 RMK A01 T10211053  RH  079%=      5-min Rain = 0
KAM1 170903Z 33005KT M02/M05 A3014 RMK A01 T10201052  RH  079%=      5-min Rain = 0
KAM1 170904Z 33005KT M02/M05 A3014 RMK A01 T10191051  RH  079%=      5-min Rain = 0
KAM1 170905Z 33006KT M02/M05 A3014 RMK A01 T10181051  RH  078%=      5-min Rain = 0
KAM1 170906Z 33006KT M02/M05 A3014 RMK A01 T10181051  RH  078%=      5-min Rain = 0
KAM1 170907Z 33006KT M02/M05 A3014 RMK A01 T10181052  RH  078%=      5-min Rain = 0
KAM1 170908Z 33006KT M02/M05 A3014 RMK A01 T10171052  RH  077%=      5-min Rain = 0
KAM1 170909Z 33006KT M02/M05 A3014 RMK A01 T10161052  RH  077%=      5-min Rain = 0
KAM1 170910Z 33006KT M02/M05 A3013 RMK A01 T10161052  RH  076%=      5-min Rain = 0
KAM1 170911Z 33006KT M02/M05 A3013 RMK A01 T10161053  RH  076%=      5-min Rain = 0
KAM1 170912Z 33005KT M02/M05 A3014 RMK A01 T10161053  RH  076%=      5-min Rain = 0
KAM1 170913Z 33005KT M02/M05 A3014 RMK A01 T10161054  RH  075%=      5-min Rain = 0
KAM1 170914Z 33005KT M02/M06 A3014 RMK A01 T10171055  RH  075%=      5-min Rain = 0
KAM1 170915Z 34005KT M02/M06 A3014 RMK A01 T10191058  RH  075%=      5-min Rain = 0
KAM1 170916Z 34005KT M02/M06 A3014 RMK A01 T10201057  RH  076%=      5-min Rain = 0
KAM1 170917Z 34005KT M02/M06 A3014 RMK A01 T10211057  RH  076%=      5-min Rain = 0
KAM1 170918Z 33006KT M02/M06 A3014 RMK A01 T10201056  RH  076%=      5-min Rain = 0
KAM1 170919Z 33005KT M02/M06 A3014 RMK A01 T10191056  RH  076%=      5-min Rain = 0
KAM1 170920Z 33006KT M02/M06 A3014 RMK A01 T10181055  RH  076%=      5-min Rain = 0
KAM1 170921Z 33005KT M02/M06 A3014 RMK A01 T10181056  RH  075%=      5-min Rain = 0
KAM1 170922Z 33005KT M02/M06 A3014 RMK A01 T10181056  RH  075%=      5-min Rain = 0
KAM1 170923Z 34005KT M02/M06 A3014 RMK A01 T10181057  RH  075%=      5-min Rain = 0
KAM1 170924Z 33004KT M02/M06 A3014 RMK A01 T10181057  RH  075%=      5-min Rain = 0
KAM1 170925Z 33004KT M02/M06 A3014 RMK A01 T10171056  RH  075%=      5-min Rain = 0
KAM1 170926Z 33005KT M02/M06 A3014 RMK A01 T10171056  RH  075%=      5-min Rain = 0
KAM1 170927Z 33005KT M02/M06 A3014 RMK A01 T10171056  RH  074%=      5-min Rain = 0
KAM1 170928Z 33005KT M02/M06 A3014 RMK A01 T10171057  RH  074%=      5-min Rain = 0
KAM1 170929Z 33005KT M02/M06 A3014 RMK A01 T10171057  RH  074%=      5-min Rain = 0
KAM1 170930Z 33005KT M02/M06 A3014 RMK A01 T10171057  RH  074%=      5-min Rain = 0
KAM1 170931Z 32005KT M02/M06 A3014 RMK A01 T10161057  RH  074%=      5-min Rain = 0
KAM1 170932Z 32005KT M02/M06 A3014 RMK A01 T10161057  RH  074%=      5-min Rain = 0
KAM1 170933Z 32005KT M02/M06 A3014 RMK A01 T10161057  RH  074%=      5-min Rain = 0
KAM1 170934Z 33005KT M02/M06 A3014 RMK A01 T10171058  RH  074%=      5-min Rain = 0
KAM1 170935Z 33005KT M02/M06 A3014 RMK A01 T10171058  RH  074%=      5-min Rain = 0
KAM1 170936Z 33005KT M02/M06 A3014 RMK A01 T10181058  RH  074%=      5-min Rain = 0
KAM1 170937Z 33005KT M02/M06 A3014 RMK A01 T10191059  RH  074%=      5-min Rain = 0
KAM1 170938Z 33005KT M02/M06 A3014 RMK A01 T10211062  RH  074%=      5-min Rain = 0
KAM1 170939Z 33005KT M02/M06 A3014 RMK A01 T10241064  RH  074%=      5-min Rain = 0
KAM1 170940Z 33005KT M03/M07 A3014 RMK A01 T10261065  RH  074%=      5-min Rain = 0
KAM1 170941Z 33006KT M03/M07 A3014 RMK A01 T10281068  RH  074%=      5-min Rain = 0
KAM1 170942Z 33006KT M03/M07 A3014 RMK A01 T10311070  RH  074%=      5-min Rain = 0
KAM1 170943Z 33006KT M03/M07 A3014 RMK A01 T10321069  RH  075%=      5-min Rain = 0
KAM1 170944Z 33006KT M03/M07 A3014 RMK A01 T10321069  RH  076%=      5-min Rain = 0
KAM1 170945Z 33007KT M03/M07 A3014 RMK A01 T10321069  RH  075%=      5-min Rain = 0
KAM1 170946Z 33006KT M03/M07 A3014 RMK A01 T10331071  RH  075%=      5-min Rain = 0
KAM1 170947Z 33006KT M03/M07 A3014 RMK A01 T10341072  RH  075%=      5-min Rain = 0
KAM1 170948Z 33006KT M04/M07 A3014 RMK A01 T10351072  RH  076%=      5-min Rain = 0
KAM1 170949Z 33006KT M04/M07 A3014 RMK A01 T10351072  RH  076%=      5-min Rain = 0
KAM1 170950Z 33006KT M04/M07 A3014 RMK A01 T10351070  RH  076%=      5-min Rain = 0
KAM1 170951Z 33006KT M03/M07 A3014 RMK A01 T10331069  RH  076%=      5-min Rain = 0
KAM1 170952Z 33006KT M03/M07 A3014 RMK A01 T10331070  RH  076%=      5-min Rain = 0
KAM1 170953Z 33006KT M03/M07 A3014 RMK A01 T10331071  RH  075%=      5-min Rain = 0
KAM1 170954Z 33006KT M03/M07 A3014 RMK A01 T10331071  RH  075%=      5-min Rain = 0
KAM1 170955Z 33006KT M03/M07 A3014 RMK A01 T10341071  RH  075%=      5-min Rain = 0
KAM1 170956Z 33006KT M03/M07 A3014 RMK A01 T10341072  RH  075%=      5-min Rain = 0
KAM1 170957Z 33006KT M04/M07 A3014 RMK A01 T10351072  RH  076%=      5-min Rain = 0
KAM1 170958Z 33006KT M04/M07 A3014 RMK A01 T10361072  RH  076%=      5-min Rain = 0
KAM1 170959Z 33006KT M04/M07 A3014 RMK A01 T10361072  RH  076%=      5-min Rain = 0
KAM1 171000Z 33006KT M04/M07 A3014 RMK A01 T10361072  RH  077%=      5-min Rain = 0
KAM1 171001Z 33006KT M04/M07 A3014 RMK A01 T10361071  RH  077%=      5-min Rain = 0
KAM1 171002Z 33006KT M04/M07 A3014 RMK A01 T10351070  RH  076%=      5-min Rain = 0
KAM1 171003Z 33006KT M04/M07 A3014 RMK A01 T10351071  RH  076%=      5-min Rain = 0
KAM1 171004Z 33006KT M04/M07 A3014 RMK A01 T10351071  RH  076%=      5-min Rain = 0
KAM1 171005Z 33006KT M04/M07 A3014 RMK A01 T10351072  RH  075%=      5-min Rain = 0
KAM1 171006Z 33006KT M04/M07 A3014 RMK A01 T10371074  RH  076%=      5-min Rain = 0
KAM1 171007Z 33006KT M04/M07 A3014 RMK A01 T10381074  RH  076%=      5-min Rain = 0
KAM1 171008Z 33006KT M04/M07 A3014 RMK A01 T10391074  RH  077%=      5-min Rain = 0
KAM1 171009Z 32006KT M04/M07 A3014 RMK A01 T10381073  RH  077%=      5-min Rain = 0
KAM1 171010Z 32006KT M04/M07 A3014 RMK A01 T10381072  RH  077%=      5-min Rain = 0
KAM1 171011Z 32006KT M04/M07 A3014 RMK A01 T10371071  RH  077%=      5-min Rain = 0
KAM1 171012Z 32006KT M04/M07 A3014 RMK A01 T10361070  RH  077%=      5-min Rain = 0
KAM1 171013Z 32005KT M04/M07 A3014 RMK A01 T10351070  RH  077%=      5-min Rain = 0
KAM1 171014Z 32006KT M03/M07 A3014 RMK A01 T10341069  RH  077%=      5-min Rain = 0
KAM1 171015Z 32006KT M03/M07 A3014 RMK A01 T10341069  RH  076%=      5-min Rain = 0
KAM1 171016Z 32006KT M03/M07 A3014 RMK A01 T10341071  RH  076%=      5-min Rain = 0
KAM1 171017Z 32006KT M04/M07 A3014 RMK A01 T10351071  RH  076%=      5-min Rain = 0
KAM1 171018Z 32006KT M04/M07 A3014 RMK A01 T10361073  RH  075%=      5-min Rain = 0
KAM1 171019Z 32006KT M04/M07 A3014 RMK A01 T10371074  RH  075%=      5-min Rain = 0
KAM1 171020Z 32006KT M04/M08 A3014 RMK A01 T10381075  RH  076%=      5-min Rain = 0
KAM1 171021Z 32006KT M04/M08 A3014 RMK A01 T10391075  RH  076%=      5-min Rain = 0
KAM1 171022Z 32006KT M04/M08 A3013 RMK A01 T10401075  RH  076%=      5-min Rain = 0
KAM1 171023Z 32006KT M04/M08 A3013 RMK A01 T10401076  RH  076%=      5-min Rain = 0
KAM1 171024Z 33006KT M04/M08 A3013 RMK A01 T10411075  RH  077%=      5-min Rain = 0
KAM1 171025Z 33006KT M04/M08 A3013 RMK A01 T10411075  RH  077%=      5-min Rain = 0
KAM1 171026Z 33005KT M04/M07 A3013 RMK A01 T10411074  RH  078%=      5-min Rain = 0
KAM1 171027Z 33005KT M04/M07 A3013 RMK A01 T10401072  RH  079%=      5-min Rain = 0
KAM1 171028Z 33005KT M04/M07 A3013 RMK A01 T10381070  RH  079%=      5-min Rain = 0
KAM1 171029Z 33005KT M04/M07 A3013 RMK A01 T10361068  RH  079%=      5-min Rain = 0
KAM1 171030Z 33005KT M03/M07 A3013 RMK A01 T10341068  RH  078%=      5-min Rain = 0
KAM1 171031Z 33005KT M03/M07 A3013 RMK A01 T10331068  RH  077%=      5-min Rain = 0
KAM1 171032Z 33005KT M03/M07 A3013 RMK A01 T10331069  RH  076%=      5-min Rain = 0
KAM1 171033Z 33005KT M03/M07 A3013 RMK A01 T10331069  RH  076%=      5-min Rain = 0
KAM1 171034Z 33005KT M03/M07 A3013 RMK A01 T10331070  RH  076%=      5-min Rain = 0
KAM1 171035Z 33005KT M03/M07 A3013 RMK A01 T10331069  RH  076%=      5-min Rain = 0
KAM1 171036Z 33005KT M03/M07 A3013 RMK A01 T10331069  RH  076%=      5-min Rain = 0
KAM1 171037Z 33005KT M03/M07 A3013 RMK A01 T10321069  RH  075%=      5-min Rain = 0
KAM1 171038Z 33005KT M03/M07 A3013 RMK A01 T10321070  RH  075%=      5-min Rain = 0
KAM1 171039Z 33005KT M03/M07 A3013 RMK A01 T10331070  RH  075%=      5-min Rain = 0
KAM1 171040Z 33005KT M03/M07 A3013 RMK A01 T10331070  RH  075%=      5-min Rain = 0
KAM1 171041Z 33005KT M03/M07 A3013 RMK A01 T10331070  RH  076%=      5-min Rain = 0
KAM1 171042Z 33005KT M03/M07 A3013 RMK A01 T10321069  RH  075%=      5-min Rain = 0
KAM1 171043Z 33005KT M03/M07 A3013 RMK A01 T10311069  RH  075%=      5-min Rain = 0
KAM1 171044Z 34005KT M03/M07 A3013 RMK A01 T10311069  RH  075%=      5-min Rain = 0
KAM1 171045Z 34005KT M03/M07 A3013 RMK A01 T10311069  RH  075%=      5-min Rain = 0
KAM1 171046Z 34005KT M03/M07 A3013 RMK A01 T10311069  RH  075%=      5-min Rain = 0
KAM1 171047Z 34005KT M03/M07 A3013 RMK A01 T10311069  RH  075%=      5-min Rain = 0
KAM1 171048Z 34005KT M03/M07 A3013 RMK A01 T10311069  RH  075%=      5-min Rain = 0
KAM1 171049Z 34005KT M03/M07 A3013 RMK A01 T10311069  RH  075%=      5-min Rain = 0
KAM1 171050Z 34005KT M03/M07 A3013 RMK A01 T10301069  RH  074%=      5-min Rain = 0
KAM1 171051Z 34006KT M03/M07 A3013 RMK A01 T10301070  RH  074%=      5-min Rain = 0
KAM1 171052Z 34005KT M03/M07 A3013 RMK A01 T10301070  RH  074%=      5-min Rain = 0
KAM1 171053Z 34006KT M03/M07 A3013 RMK A01 T10291069  RH  074%=      5-min Rain = 0
KAM1 171054Z 34006KT M03/M07 A3013 RMK A01 T10291069  RH  074%=      5-min Rain = 0
KAM1 171055Z 34006KT M03/M07 A3013 RMK A01 T10291070  RH  073%=      5-min Rain = 0
KAM1 171056Z 34006KT M03/M07 A3013 RMK A01 T10301071  RH  073%=      5-min Rain = 0
KAM1 171057Z 34006KT M03/M07 A3013 RMK A01 T10301072  RH  073%=      5-min Rain = 0
KAM1 171058Z 34006KT M03/M07 A3013 RMK A01 T10301072  RH  073%=      5-min Rain = 0
KAM1 171059Z 34006KT M03/M07 A3013 RMK A01 T10301072  RH  073%=      5-min Rain = 0
KAM1 171100Z 34006KT M03/M07 A3013 RMK A01 T10301073  RH  072%=      5-min Rain = 0
KAM1 171101Z 34006KT M03/M07 A3013 RMK A01 T10311074  RH  072%=      5-min Rain = 0
KAM1 171102Z 34006KT M03/M08 A3013 RMK A01 T10321075  RH  072%=      5-min Rain = 0
KAM1 171103Z 34006KT M03/M08 A3013 RMK A01 T10331076  RH  072%=      5-min Rain = 0
KAM1 171104Z 34006KT M03/M08 A3013 RMK A01 T10331076  RH  072%=      5-min Rain = 0
KAM1 171105Z 34006KT M03/M08 A3013 RMK A01 T10331076  RH  072%=      5-min Rain = 0
KAM1 171106Z 34007KT M03/M08 A3013 RMK A01 T10331076  RH  072%=      5-min Rain = 0
KAM1 171107Z 34006KT M03/M08 A3013 RMK A01 T10331076  RH  072%=      5-min Rain = 0
KAM1 171108Z 34007KT M03/M08 A3013 RMK A01 T10321075  RH  072%=      5-min Rain = 0
KAM1 171109Z 34007KT M03/M08 A3013 RMK A01 T10321076  RH  072%=      5-min Rain = 0
KAM1 171110Z 34007KT M03/M08 A3013 RMK A01 T10321075  RH  072%=      5-min Rain = 0
KAM1 171111Z 34007KT M03/M08 A3013 RMK A01 T10311076  RH  071%=      5-min Rain = 0
KAM1 171112Z 34008KT M03/M08 A3013 RMK A01 T10311077  RH  071%=      5-min Rain = 0
KAM1 171113Z 34008KT M03/M08 A3013 RMK A01 T10331078  RH  071%=      5-min Rain = 0
KAM1 171114Z 34008KT M03/M08 A3013 RMK A01 T10341080  RH  071%=      5-min Rain = 0
KAM1 171115Z 34007KT M04/M08 A3013 RMK A01 T10351080  RH  071%=      5-min Rain = 0
KAM1 171116Z 34008KT M04/M08 A3013 RMK A01 T10361079  RH  072%=      5-min Rain = 0
KAM1 171117Z 34007KT M04/M08 A3013 RMK A01 T10361079  RH  072%=      5-min Rain = 0
KAM1 171118Z 34007KT M04/M08 A3013 RMK A01 T10351077  RH  073%=      5-min Rain = 0
KAM1 171119Z 34007KT M04/M08 A3013 RMK A01 T10351077  RH  073%=      5-min Rain = 0
KAM1 171120Z 34007KT M03/M08 A3013 RMK A01 T10341076  RH  073%=      5-min Rain = 0
KAM1 171121Z 34007KT M03/M08 A3013 RMK A01 T10341076  RH  073%=      5-min Rain = 0
KAM1 171122Z 34007KT M03/M08 A3013 RMK A01 T10341076  RH  073%=      5-min Rain = 0
KAM1 171123Z 34007KT M03/M08 A3013 RMK A01 T10341076  RH  072%=      5-min Rain = 0
KAM1 171124Z 34007KT M03/M08 A3013 RMK A01 T10341076  RH  072%=      5-min Rain = 0
KAM1 171125Z 34007KT M03/M08 A3013 RMK A01 T10341077  RH  072%=      5-min Rain = 0
KAM1 171126Z 34007KT M04/M08 A3013 RMK A01 T10351078  RH  072%=      5-min Rain = 0
KAM1 171127Z 34007KT M04/M08 A3013 RMK A01 T10361079  RH  072%=      5-min Rain = 0
KAM1 171128Z 34007KT M04/M08 A3013 RMK A01 T10361079  RH  072%=      5-min Rain = 0
KAM1 171129Z 34007KT M04/M08 A3013 RMK A01 T10361079  RH  072%=      5-min Rain = 0
KAM1 171130Z 34007KT M04/M08 A3013 RMK A01 T10361079  RH  072%=      5-min Rain = 0
KAM1 171131Z 34008KT M04/M08 A3013 RMK A01 T10371081  RH  072%=      5-min Rain = 0
KAM1 171132Z 34008KT M04/M08 A3013 RMK A01 T10391082  RH  072%=      5-min Rain = 0
KAM1 171133Z 34008KT M04/M08 A3013 RMK A01 T10401083  RH  072%=      5-min Rain = 0
KAM1 171134Z 34008KT M04/M08 A3013 RMK A01 T10411084  RH  072%=      5-min Rain = 0
KAM1 171135Z 34008KT M04/M09 A3013 RMK A01 T10431085  RH  072%=      5-min Rain = 0
KAM1 171136Z 34008KT M04/M09 A3013 RMK A01 T10441085  RH  073%=      5-min Rain = 0
KAM1 171137Z 34008KT M04/M09 A3014 RMK A01 T10441085  RH  073%=      5-min Rain = 0
KAM1 171138Z 34008KT M04/M08 A3014 RMK A01 T10441084  RH  074%=      5-min Rain = 0
KAM1 171139Z 34008KT M04/M08 A3014 RMK A01 T10441083  RH  074%=      5-min Rain = 0
KAM1 171140Z 34007KT M04/M08 A3014 RMK A01 T10441083  RH  074%=      5-min Rain = 0
KAM1 171141Z 34007KT M04/M08 A3014 RMK A01 T10431082  RH  074%=      5-min Rain = 0
KAM1 171142Z 34007KT M04/M08 A3014 RMK A01 T10411081  RH  074%=      5-min Rain = 0
KAM1 171143Z 34007KT M04/M08 A3014 RMK A01 T10401080  RH  074%=      5-min Rain = 0
KAM1 171144Z 34007KT M04/M08 A3013 RMK A01 T10391079  RH  074%=      5-min Rain = 0
KAM1 171145Z 34007KT M04/M08 A3013 RMK A01 T10391079  RH  073%=      5-min Rain = 0
KAM1 171146Z 34007KT M04/M08 A3014 RMK A01 T10391079  RH  074%=      5-min Rain = 0
KAM1 171147Z 34007KT M04/M08 A3014 RMK A01 T10381078  RH  073%=      5-min Rain = 0
KAM1 171148Z 34007KT M04/M08 A3014 RMK A01 T10371079  RH  073%=      5-min Rain = 0
KAM1 171149Z 34007KT M04/M08 A3014 RMK A01 T10371080  RH  073%=      5-min Rain = 0
KAM1 171150Z 34008KT M04/M08 A3014 RMK A01 T10381080  RH  072%=      5-min Rain = 0
KAM1 171151Z 33008KT M04/M08 A3014 RMK A01 T10381080  RH  073%=      5-min Rain = 0
KAM1 171152Z 33008KT M04/M08 A3014 RMK A01 T10381080  RH  073%=      5-min Rain = 0
KAM1 171153Z 34008KT M04/M08 A3014 RMK A01 T10381080  RH  073%=      5-min Rain = 0
KAM1 171154Z 34008KT M04/M08 A3014 RMK A01 T10381080  RH  073%=      5-min Rain = 0
KAM1 171155Z 34008KT M04/M08 A3014 RMK A01 T10381080  RH  073%=      5-min Rain = 0
KAM1 171156Z 34008KT M04/M08 A3014 RMK A01 T10381080  RH  073%=      5-min Rain = 0
KAM1 171157Z 34008KT M04/M08 A3014 RMK A01 T10381080  RH  073%=      5-min Rain = 0
KAM1 171158Z 34008KT M04/M08 A3014 RMK A01 T10391080  RH  073%=      5-min Rain = 0
KAM1 171159Z 34007KT M04/M08 A3014 RMK A01 T10391080  RH  073%=      5-min Rain = 0
KAM1 171200Z 34007KT M04/M08 A3014 RMK A01 T10391080  RH  073%=      5-min Rain = 0
KAM1 171201Z 34008KT M04/M08 A3014 RMK A01 T10391081  RH  073%=      5-min Rain = 0
KAM1 171202Z 34008KT M04/M08 A3014 RMK A01 T10391081  RH  073%=      5-min Rain = 0
KAM1 171203Z 33008KT M04/M08 A3014 RMK A01 T10391081  RH  073%=      5-min Rain = 0
KAM1 171204Z 33008KT M04/M08 A3014 RMK A01 T10391081  RH  073%=      5-min Rain = 0
KAM1 171205Z 34008KT M04/M08 A3014 RMK A01 T10401082  RH  073%=      5-min Rain = 0
KAM1 171206Z 34008KT M04/M08 A3014 RMK A01 T10401082  RH  073%=      5-min Rain = 0
KAM1 171207Z 34008KT M04/M08 A3014 RMK A01 T10401082  RH  073%=      5-min Rain = 0
KAM1 171208Z 33008KT M04/M08 A3014 RMK A01 T10401082  RH  073%=      5-min Rain = 0
KAM1 171209Z 33008KT M04/M08 A3014 RMK A01 T10401082  RH  073%=      5-min Rain = 0
KAM1 171210Z 33008KT M04/M08 A3014 RMK A01 T10401082  RH  073%=      5-min Rain = 0
KAM1 171211Z 33008KT M04/M08 A3014 RMK A01 T10401082  RH  073%=      5-min Rain = 0
KAM1 171212Z 33008KT M04/M08 A3014 RMK A01 T10391081  RH  073%=      5-min Rain = 0
KAM1 171213Z 33008KT M04/M08 A3014 RMK A01 T10391081  RH  073%=      5-min Rain = 0
KAM1 171214Z 34008KT M04/M08 A3014 RMK A01 T10391080  RH  073%=      5-min Rain = 0
KAM1 171215Z 34008KT M04/M08 A3014 RMK A01 T10391080  RH  073%=      5-min Rain = 0
KAM1 171216Z 34008KT M04/M08 A3014 RMK A01 T10391080  RH  073%=      5-min Rain = 0
KAM1 171217Z 34008KT M04/M08 A3014 RMK A01 T10391080  RH  073%=      5-min Rain = 0
KAM1 171218Z 34008KT M04/M08 A3014 RMK A01 T10391080  RH  073%=      5-min Rain = 0
KAM1 171219Z 34008KT M04/M08 A3015 RMK A01 T10381080  RH  073%=      5-min Rain = 0
KAM1 171220Z 34008KT M04/M08 A3015 RMK A01 T10381080  RH  073%=      5-min Rain = 0
KAM1 171221Z 34008KT M04/M08 A3015 RMK A01 T10391081  RH  073%=      5-min Rain = 0
KAM1 171222Z 34008KT M04/M08 A3015 RMK A01 T10391081  RH  073%=      5-min Rain = 0
KAM1 171223Z 34008KT M04/M08 A3015 RMK A01 T10391081  RH  073%=      5-min Rain = 0
KAM1 171224Z 34008KT M04/M08 A3015 RMK A01 T10401082  RH  073%=      5-min Rain = 0
KAM1 171225Z 34008KT M04/M08 A3015 RMK A01 T10401081  RH  073%=      5-min Rain = 0
KAM1 171226Z 34008KT M04/M08 A3015 RMK A01 T10401081  RH  073%=      5-min Rain = 0
KAM1 171227Z 34008KT M04/M08 A3015 RMK A01 T10401081  RH  073%=      5-min Rain = 0
KAM1 171228Z 34008KT M04/M08 A3015 RMK A01 T10401081  RH  073%=      5-min Rain = 0
KAM1 171229Z 34008KT M04/M08 A3015 RMK A01 T10401081  RH  073%=      5-min Rain = 0
KAM1 171230Z 34008KT M04/M08 A3015 RMK A01 T10391081  RH  073%=      5-min Rain = 0
KAM1 171231Z 34008KT M04/M08 A3015 RMK A01 T10391081  RH  073%=      5-min Rain = 0
KAM1 171232Z 34008KT M04/M08 A3015 RMK A01 T10391081  RH  073%=      5-min Rain = 0
KAM1 171233Z 34007KT M04/M08 A3015 RMK A01 T10401082  RH  073%=      5-min Rain = 0
KAM1 171234Z 34007KT M04/M08 A3015 RMK A01 T10411082  RH  073%=      5-min Rain = 0
KAM1 171235Z 34007KT M04/M08 A3015 RMK A01 T10411083  RH  073%=      5-min Rain = 0
KAM1 171236Z 34007KT M04/M08 A3015 RMK A01 T10411082  RH  073%=      5-min Rain = 0
KAM1 171237Z 34007KT M04/M08 A3015 RMK A01 T10411082  RH  073%=      5-min Rain = 0
KAM1 171238Z 34007KT M04/M08 A3015 RMK A01 T10411082  RH  073%=      5-min Rain = 0
KAM1 171239Z 34007KT M04/M08 A3015 RMK A01 T10411082  RH  073%=      5-min Rain = 0
KAM1 171240Z 34007KT M04/M08 A3015 RMK A01 T10411082  RH  073%=      5-min Rain = 0
KAM1 171241Z 34007KT M04/M08 A3015 RMK A01 T10411082  RH  073%=      5-min Rain = 0
KAM1 171242Z 34007KT M04/M08 A3015 RMK A01 T10401082  RH  073%=      5-min Rain = 0
KAM1 171243Z 34007KT M04/M08 A3015 RMK A01 T10401082  RH  073%=      5-min Rain = 0
KAM1 171244Z 34006KT M04/M08 A3015 RMK A01 T10401082  RH  073%=      5-min Rain = 0
KAM1 171245Z 34007KT M04/M08 A3015 RMK A01 T10411083  RH  073%=      5-min Rain = 0
KAM1 171246Z 34006KT M04/M08 A3015 RMK A01 T10421084  RH  073%=      5-min Rain = 0
KAM1 171247Z 34007KT M04/M08 A3015 RMK A01 T10421083  RH  073%=      5-min Rain = 0
KAM1 171248Z 34007KT M04/M08 A3015 RMK A01 T10421083  RH  073%=      5-min Rain = 0
KAM1 171249Z 34006KT M04/M08 A3015 RMK A01 T10421082  RH  073%=      5-min Rain = 0
KAM1 171250Z 34006KT M04/M08 A3015 RMK A01 T10401081  RH  073%=      5-min Rain = 0
KAM1 171251Z 34006KT M04/M08 A3015 RMK A01 T10381079  RH  073%=      5-min Rain = 0
KAM1 171252Z 34006KT M04/M08 A3015 RMK A01 T10361079  RH  072%=      5-min Rain = 0
KAM1 171253Z 34006KT M04/M08 A3015 RMK A01 T10361080  RH  071%=      5-min Rain = 0
KAM1 171254Z 34007KT M04/M08 A3015 RMK A01 T10361081  RH  071%=      5-min Rain = 0
KAM1 171255Z 34007KT M04/M08 A3015 RMK A01 T10371081  RH  072%=      5-min Rain = 0
KAM1 171256Z 34007KT M04/M08 A3015 RMK A01 T10361080  RH  071%=      5-min Rain = 0
KAM1 171257Z 34007KT M04/M08 A3015 RMK A01 T10351080  RH  071%=      5-min Rain = 0
KAM1 171258Z 34007KT M04/M08 A3015 RMK A01 T10351080  RH  071%=      5-min Rain = 0
KAM1 171259Z 34007KT M04/M08 A3015 RMK A01 T10371083  RH  070%=      5-min Rain = 0
KAM1 171300Z 34007KT M04/M09 A3015 RMK A01 T10401086  RH  070%=      5-min Rain = 0
KAM1 171301Z 34007KT M04/M09 A3015 RMK A01 T10431087  RH  071%=      5-min Rain = 0
KAM1 171302Z 34007KT M04/M09 A3015 RMK A01 T10431086  RH  072%=      5-min Rain = 0
KAM1 171303Z 34007KT M04/M09 A3015 RMK A01 T10431086  RH  072%=      5-min Rain = 0
KAM1 171304Z 34007KT M04/M09 A3015 RMK A01 T10441086  RH  072%=      5-min Rain = 0
KAM1 171305Z 34007KT M04/M09 A3015 RMK A01 T10441086  RH  073%=      5-min Rain = 0
KAM1 171306Z 34007KT M04/M09 A3015 RMK A01 T10441085  RH  073%=      5-min Rain = 0
KAM1 171307Z 34007KT M04/M09 A3015 RMK A01 T10441086  RH  072%=      5-min Rain = 0
KAM1 171308Z 34007KT M05/M09 A3015 RMK A01 T10451087  RH  072%=      5-min Rain = 0
KAM1 171309Z 34007KT M05/M09 A3015 RMK A01 T10451086  RH  073%=      5-min Rain = 0
KAM1 171310Z 34007KT M05/M09 A3015 RMK A01 T10451087  RH  073%=      5-min Rain = 0
KAM1 171311Z 34007KT M05/M09 A3015 RMK A01 T10451086  RH  073%=      5-min Rain = 0
KAM1 171312Z 34007KT M05/M09 A3015 RMK A01 T10461086  RH  073%=      5-min Rain = 0
KAM1 171313Z 34007KT M05/M09 A3015 RMK A01 T10461086  RH  074%=      5-min Rain = 0
KAM1 171314Z 34007KT M05/M09 A3016 RMK A01 T10451085  RH  074%=      5-min Rain = 0
KAM1 171315Z 34007KT M05/M09 A3016 RMK A01 T10451085  RH  074%=      5-min Rain = 0
KAM1 171316Z 34007KT M05/M09 A3016 RMK A01 T10461085  RH  074%=      5-min Rain = 0
KAM1 171317Z 34007KT M05/M09 A3016 RMK A01 T10461086  RH  074%=      5-min Rain = 0
KAM1 171318Z 34007KT M05/M09 A3016 RMK A01 T10461085  RH  074%=      5-min Rain = 0
KAM1 171319Z 34007KT M05/M09 A3016 RMK A01 T10461085  RH  074%=      5-min Rain = 0
KAM1 171320Z 34007KT M05/M09 A3016 RMK A01 T10461085  RH  074%=      5-min Rain = 0
KAM1 171321Z 34007KT M05/M08 A3016 RMK A01 T10451084  RH  074%=      5-min Rain = 0
KAM1 171322Z 34007KT M05/M09 A3016 RMK A01 T10451085  RH  074%=      5-min Rain = 0
KAM1 171323Z 34007KT M05/M09 A3016 RMK A01 T10451085  RH  074%=      5-min Rain = 0
KAM1 171324Z 34007KT M05/M09 A3016 RMK A01 T10461086  RH  074%=      5-min Rain = 0
KAM1 171325Z 34007KT M05/M09 A3016 RMK A01 T10481088  RH  074%=      5-min Rain = 0
KAM1 171326Z 34007KT M05/M09 A3016 RMK A01 T10491089  RH  074%=      5-min Rain = 0
KAM1 171327Z 34007KT M05/M09 A3017 RMK A01 T10501089  RH  074%=      5-min Rain = 0
KAM1 171328Z 34007KT M05/M09 A3017 RMK A01 T10511089  RH  075%=      5-min Rain = 0
KAM1 171329Z 34007KT M05/M09 A3017 RMK A01 T10511088  RH  076%=      5-min Rain = 0
KAM1 171330Z 34007KT M05/M09 A3017 RMK A01 T10511087  RH  076%=      5-min Rain = 0
KAM1 171331Z 34007KT M05/M09 A3017 RMK A01 T10501086  RH  076%=      5-min Rain = 0
KAM1 171332Z 34007KT M05/M09 A3017 RMK A01 T10491085  RH  076%=      5-min Rain = 0
KAM1 171333Z 34007KT M05/M09 A3017 RMK A01 T10491086  RH  075%=      5-min Rain = 0
KAM1 171334Z 34007KT M05/M09 A3017 RMK A01 T10491087  RH  075%=      5-min Rain = 0
KAM1 171335Z 34007KT M05/M09 A3017 RMK A01 T10491087  RH  075%=      5-min Rain = 0
KAM1 171336Z 35007KT M05/M09 A3017 RMK A01 T10491087  RH  075%=      5-min Rain = 0
KAM1 171337Z 35007KT M05/M09 A3017 RMK A01 T10471085  RH  075%=      5-min Rain = 0
KAM1 171338Z 35007KT M05/M09 A3017 RMK A01 T10461085  RH  074%=      5-min Rain = 0
KAM1 171339Z 35007KT M05/M09 A3017 RMK A01 T10451085  RH  074%=      5-min Rain = 0
KAM1 171340Z 35007KT M04/M08 A3017 RMK A01 T10441084  RH  074%=      5-min Rain = 0
KAM1 171341Z 35007KT M04/M08 A3017 RMK A01 T10431083  RH  073%=      5-min Rain = 0
KAM1 171342Z 35007KT M04/M08 A3017 RMK A01 T10421083  RH  073%=      5-min Rain = 0
KAM1 171343Z 35007KT M04/M08 A3017 RMK A01 T10411083  RH  073%=      5-min Rain = 0
KAM1 171344Z 35007KT M04/M08 A3017 RMK A01 T10411084  RH  072%=      5-min Rain = 0
KAM1 171345Z 35007KT M04/M08 A3017 RMK A01 T10421084  RH  073%=      5-min Rain = 0
KAM1 171346Z 35007KT M04/M08 A3017 RMK A01 T10431084  RH  073%=      5-min Rain = 0
KAM1 171347Z 35006KT M04/M08 A3017 RMK A01 T10421084  RH  073%=      5-min Rain = 0
KAM1 171348Z 35006KT M04/M08 A3017 RMK A01 T10431084  RH  073%=      5-min Rain = 0
KAM1 171349Z 35006KT M04/M08 A3017 RMK A01 T10421084  RH  073%=      5-min Rain = 0
KAM1 171350Z 36006KT M04/M08 A3017 RMK A01 T10411083  RH  073%=      5-min Rain = 0
KAM1 171351Z 35006KT M04/M08 A3017 RMK A01 T10401082  RH  073%=      5-min Rain = 0
KAM1 171352Z 35006KT M04/M08 A3017 RMK A01 T10401082  RH  073%=      5-min Rain = 0
KAM1 171353Z 35006KT M04/M08 A3017 RMK A01 T10391081  RH  072%=      5-min Rain = 0
KAM1 171354Z 35006KT M04/M08 A3017 RMK A01 T10381080  RH  072%=      5-min Rain = 0
KAM1 171355Z 35006KT M04/M08 A3017 RMK A01 T10381081  RH  072%=      5-min Rain = 0
KAM1 171356Z 35006KT M04/M08 A3017 RMK A01 T10381081  RH  072%=      5-min Rain = 0
KAM1 171357Z 35005KT M04/M08 A3017 RMK A01 T10381081  RH  072%=      5-min Rain = 0
KAM1 171358Z 35006KT M04/M08 A3016 RMK A01 T10381081  RH  072%=      5-min Rain = 0
KAM1 171359Z 35005KT M04/M08 A3016 RMK A01 T10381081  RH  072%=      5-min Rain = 0
KAM1 171400Z 35006KT M04/M08 A3016 RMK A01 T10381081  RH  072%=      5-min Rain = 0
KAM1 171401Z 35006KT M04/M08 A3016 RMK A01 T10381081  RH  072%=      5-min Rain = 0
KAM1 171402Z 35005KT M04/M08 A3016 RMK A01 T10371080  RH  072%=      5-min Rain = 0
KAM1 171403Z 35005KT M04/M08 A3016 RMK A01 T10371080  RH  072%=      5-min Rain = 0
KAM1 171404Z 35005KT M04/M08 A3016 RMK A01 T10361079  RH  072%=      5-min Rain = 0
KAM1 171405Z 35005KT M04/M08 A3016 RMK A01 T10361080  RH  071%=      5-min Rain = 0
KAM1 171406Z 35005KT M04/M08 A3016 RMK A01 T10371081  RH  071%=      5-min Rain = 0
KAM1 171407Z 34006KT M04/M08 A3016 RMK A01 T10381082  RH  071%=      5-min Rain = 0
KAM1 171408Z 34006KT M04/M08 A3016 RMK A01 T10391083  RH  072%=      5-min Rain = 0
KAM1 171409Z 34006KT M04/M08 A3016 RMK A01 T10401084  RH  072%=      5-min Rain = 0
KAM1 171410Z 34006KT M04/M09 A3016 RMK A01 T10441087  RH  072%=      5-min Rain = 0
KAM1 171411Z 34006KT M05/M09 A3016 RMK A01 T10461087  RH  073%=      5-min Rain = 0
KAM1 171412Z 34006KT M05/M09 A3016 RMK A01 T10461086  RH  074%=      5-min Rain = 0
KAM1 171413Z 34006KT M05/M08 A3016 RMK A01 T10461084  RH  074%=      5-min Rain = 0
KAM1 171414Z 34006KT M05/M08 A3016 RMK A01 T10451084  RH  075%=      5-min Rain = 0
KAM1 171415Z 34006KT M05/M08 A3017 RMK A01 T10451083  RH  075%=      5-min Rain = 0
KAM1 171416Z 34006KT M04/M08 A3017 RMK A01 T10431081  RH  075%=      5-min Rain = 0
KAM1 171417Z 34006KT M04/M08 A3017 RMK A01 T10411079  RH  075%=      5-min Rain = 0
KAM1 171418Z 34006KT M04/M08 A3017 RMK A01 T10401079  RH  075%=      5-min Rain = 0
KAM1 171419Z 34007KT M04/M08 A3017 RMK A01 T10401079  RH  075%=      5-min Rain = 0
KAM1 171420Z 34007KT M04/M08 A3017 RMK A01 T10401079  RH  074%=      5-min Rain = 0
KAM1 171421Z 34007KT M04/M08 A3017 RMK A01 T10421081  RH  074%=      5-min Rain = 0
KAM1 171422Z 34007KT M04/M08 A3017 RMK A01 T10431081  RH  075%=      5-min Rain = 0
KAM1 171423Z 34007KT M04/M08 A3017 RMK A01 T10431081  RH  075%=      5-min Rain = 0
KAM1 171424Z 34007KT M05/M08 A3017 RMK A01 T10451082  RH  075%=      5-min Rain = 0
KAM1 171425Z 34007KT M05/M08 A3017 RMK A01 T10451082  RH  076%=      5-min Rain = 0
KAM1 171426Z 33007KT M05/M08 A3017 RMK A01 T10451081  RH  076%=      5-min Rain = 0
KAM1 171427Z 33007KT M05/M08 A3017 RMK A01 T10461080  RH  077%=      5-min Rain = 0
KAM1 171428Z 34007KT M05/M08 A3017 RMK A01 T10461079  RH  077%=      5-min Rain = 0
KAM1 171429Z 34007KT M05/M08 A3017 RMK A01 T10461079  RH  078%=      5-min Rain = 0
KAM1 171430Z 34007KT M05/M08 A3017 RMK A01 T10451078  RH  078%=      5-min Rain = 0
KAM1 171431Z 34007KT M05/M08 A3018 RMK A01 T10451077  RH  078%=      5-min Rain = 0
KAM1 171432Z 34007KT M04/M08 A3018 RMK A01 T10431075  RH  078%=      5-min Rain = 0
KAM1 171433Z 33007KT M04/M07 A3018 RMK A01 T10421074  RH  078%=      5-min Rain = 0
KAM1 171434Z 33006KT M04/M07 A3018 RMK A01 T10421074  RH  079%=      5-min Rain = 0
KAM1 171435Z 33006KT M04/M07 A3018 RMK A01 T10421073  RH  079%=      5-min Rain = 0
KAM1 171436Z 33007KT M04/M07 A3018 RMK A01 T10411072  RH  079%=      5-min Rain = 0
KAM1 171437Z 33006KT M04/M07 A3018 RMK A01 T10401072  RH  079%=      5-min Rain = 0
KAM1 171438Z 33006KT M04/M07 A3018 RMK A01 T10401071  RH  079%=      5-min Rain = 0
KAM1 171439Z 33006KT M04/M07 A3018 RMK A01 T10391070  RH  079%=      5-min Rain = 0
KAM1 171440Z 34006KT M04/M07 A3018 RMK A01 T10391070  RH  079%=      5-min Rain = 0
KAM1 171441Z 33006KT M04/M07 A3018 RMK A01 T10391070  RH  079%=      5-min Rain = 0
KAM1 171442Z 34006KT M04/M07 A3018 RMK A01 T10391070  RH  079%=      5-min Rain = 0
KAM1 171443Z 34006KT M04/M07 A3018 RMK A01 T10381069  RH  079%=      5-min Rain = 0
KAM1 171444Z 33006KT M04/M07 A3018 RMK A01 T10381069  RH  079%=      5-min Rain = 0
KAM1 171445Z 33006KT M04/M07 A3018 RMK A01 T10381069  RH  079%=      5-min Rain = 0
KAM1 171446Z 33006KT M04/M07 A3018 RMK A01 T10371068  RH  079%=      5-min Rain = 0
KAM1 171447Z 33006KT M04/M07 A3018 RMK A01 T10371068  RH  079%=      5-min Rain = 0
KAM1 171448Z 33006KT M04/M07 A3018 RMK A01 T10371068  RH  079%=      5-min Rain = 0
KAM1 171449Z 33006KT M04/M07 A3018 RMK A01 T10371067  RH  079%=      5-min Rain = 0
KAM1 171450Z 33006KT M04/M07 A3018 RMK A01 T10361067  RH  079%=      5-min Rain = 0
KAM1 171451Z 33006KT M03/M07 A3018 RMK A01 T10341065  RH  079%=      5-min Rain = 0
KAM1 171452Z 33005KT M03/M06 A3018 RMK A01 T10321063  RH  080%=      5-min Rain = 0
KAM1 171453Z 33005KT M03/M06 A3018 RMK A01 T10301060  RH  080%=      5-min Rain = 0
KAM1 171454Z 33005KT M03/M06 A3018 RMK A01 T10281057  RH  080%=      5-min Rain = 0
KAM1 171455Z 33005KT M03/M06 A3018 RMK A01 T10251056  RH  079%=      5-min Rain = 0
KAM1 171456Z 33005KT M02/M06 A3018 RMK A01 T10231055  RH  078%=      5-min Rain = 0
KAM1 171457Z 32004KT M02/M06 A3018 RMK A01 T10201055  RH  077%=      5-min Rain = 0
KAM1 171458Z 33004KT M02/M05 A3018 RMK A01 T10171052  RH  077%=      5-min Rain = 0
KAM1 171459Z 33004KT M02/M05 A3018 RMK A01 T10161053  RH  076%=      5-min Rain = 0
KAM1 171500Z 33003KT M01/M05 A3018 RMK A01 T10141053  RH  075%=      5-min Rain = 0
KAM1 171501Z 33003KT M01/M05 A3018 RMK A01 T10131052  RH  075%=      5-min Rain = 0
KAM1 171502Z 33003KT M01/M05 A3018 RMK A01 T10121051  RH  075%=      5-min Rain = 0
KAM1 171503Z 32003KT M01/M05 A3018 RMK A01 T10111050  RH  075%=      5-min Rain = 0
KAM1 171504Z 32003KT M01/M05 A3018 RMK A01 T10101048  RH  075%=      5-min Rain = 0
KAM1 171505Z 32003KT M01/M05 A3018 RMK A01 T10081047  RH  075%=      5-min Rain = 0
KAM1 171506Z 33003KT M01/M05 A3018 RMK A01 T10071047  RH  074%=      5-min Rain = 0
KAM1 171507Z 33003KT M01/M04 A3018 RMK A01 T10051044  RH  074%=      5-min Rain = 0
KAM1 171508Z 33003KT M00/M04 A3018 RMK A01 T10031044  RH  073%=      5-min Rain = 0
KAM1 171509Z 33004KT M00/M04 A3018 RMK A01 T10011043  RH  073%=      5-min Rain = 0
KAM1 171510Z 34003KT 00/05 A3018 RMK A01 T00-00-46  RH  071%=      5-min Rain = 0
KAM1 171511Z 34004KT 00/M05 A3018 RMK A01 T00011045  RH  071%=      5-min Rain = 0
KAM1 171512Z 34005KT 00/M04 A3018 RMK A01 T00031042  RH  072%=      5-min Rain = 0
KAM1 171513Z 34005KT 01/M04 A3018 RMK A01 T00051044  RH  070%=      5-min Rain = 0
KAM1 171514Z 34005KT 01/M04 A3018 RMK A01 T00071043  RH  069%=      5-min Rain = 0
KAM1 171515Z 34005KT 01/M04 A3018 RMK A01 T00091040  RH  070%=      5-min Rain = 0
KAM1 171516Z 34006KT 01/M04 A3018 RMK A01 T00101043  RH  067%=      5-min Rain = 0
KAM1 171517Z 34007KT 01/M04 A3018 RMK A01 T00111044  RH  067%=      5-min Rain = 0
KAM1 171518Z 34006KT 01/M05 A3018 RMK A01 T00121046  RH  065%=      5-min Rain = 0
KAM1 171519Z 34006KT 01/M05 A3018 RMK A01 T00121046  RH  065%=      5-min Rain = 0
KAM1 171520Z 34007KT 01/M04 A3018 RMK A01 T00131044  RH  066%=      5-min Rain = 0
KAM1 171521Z 35007KT 01/M05 A3018 RMK A01 T00141045  RH  065%=      5-min Rain = 0
KAM1 171522Z 34007KT 01/M05 A3018 RMK A01 T00141046  RH  064%=      5-min Rain = 0
KAM1 171523Z 35006KT 02/M05 A3019 RMK A01 T00151048  RH  063%=      5-min Rain = 0
KAM1 171524Z 34006KT 02/M05 A3019 RMK A01 T00151046  RH  064%=      5-min Rain = 0
KAM1 171525Z 35007KT 02/M05 A3019 RMK A01 T00161046  RH  064%=      5-min Rain = 0
KAM1 171526Z 35007KT 02/M05 A3019 RMK A01 T00171045  RH  064%=      5-min Rain = 0
KAM1 171527Z 35007KT 02/M05 A3019 RMK A01 T00171046  RH  063%=      5-min Rain = 0
KAM1 171528Z 35007KT 02/M05 A3019 RMK A01 T00181046  RH  062%=      5-min Rain = 0
KAM1 171529Z 35008KT 02/M05 A3019 RMK A01 T00191047  RH  062%=      5-min Rain = 0
KAM1 171530Z 35009KT 02/M05 A3019 RMK A01 T00191049  RH  061%=      5-min Rain = 0
KAM1 171531Z 35009KT 02/M05 A3019 RMK A01 T00191049  RH  061%=      5-min Rain = 0
KAM1 171532Z 35009KT 02/M05 A3019 RMK A01 T00191049  RH  061%=      5-min Rain = 0
KAM1 171533Z 36009KT 02/M05 A3019 RMK A01 T00201050  RH  060%=      5-min Rain = 0
KAM1 171534Z 00010KT 02/M05 A3019 RMK A01 T00201048  RH  061%=      5-min Rain = 0
KAM1 171535Z 36009KT 02/M05 A3019 RMK A01 T00211048  RH  060%=      5-min Rain = 0
KAM1 171536Z 36009KT 02/M05 A3019 RMK A01 T00211049  RH  060%=      5-min Rain = 0
KAM1 171537Z 36010KT 02/M05 A3019 RMK A01 T00211049  RH  060%=      5-min Rain = 0
KAM1 171538Z 35009KT 02/M05 A3019 RMK A01 T00221049  RH  060%=      5-min Rain = 0
KAM1 171539Z 36010KT 02/M05 A3019 RMK A01 T00221048  RH  060%=      5-min Rain = 0
KAM1 171540Z 36011KT 02/M05 A3019 RMK A01 T00231049  RH  059%=      5-min Rain = 0
KAM1 171541Z 36010KT 02/M05 A3019 RMK A01 T00231051  RH  058%=      5-min Rain = 0
KAM1 171542Z 00008KT 02/M05 A3019 RMK A01 T00231051  RH  058%=      5-min Rain = 0
KAM1 171543Z 35007KT 02/M05 A3019 RMK A01 T00241047  RH  059%=      5-min Rain = 0
KAM1 171544Z 35009KT 03/M05 A302 RMK A01 T00261048  RH  058%=      5-min Rain = 0
KAM1 171545Z 36008KT 03/M05 A302 RMK A01 T00261050  RH  057%=      5-min Rain = 0
KAM1 171546Z 00010KT 03/M05 A302 RMK A01 T00271049  RH  057%=      5-min Rain = 0
KAM1 171547Z 00007KT 03/M05 A3019 RMK A01 T00271051  RH  057%=      5-min Rain = 0
KAM1 171548Z 00010KT 03/M05 A302 RMK A01 T00281048  RH  057%=      5-min Rain = 0
KAM1 171549Z 36008KT 03/M05 A3019 RMK A01 T00281051  RH  056%=      5-min Rain = 0
KAM1 171550Z 36009KT 03/M05 A302 RMK A01 T00281051  RH  056%=      5-min Rain = 0
KAM1 171551Z 00009KT 03/M05 A3019 RMK A01 T00281051  RH  056%=      5-min Rain = 0
KAM1 171552Z 00008KT 03/M05 A3019 RMK A01 T00291051  RH  056%=      5-min Rain = 0
KAM1 171553Z 00008KT 03/M05 A3019 RMK A01 T00301051  RH  055%=      5-min Rain = 0
KAM1 171554Z 00009KT 03/M05 A3019 RMK A01 T00311051  RH  055%=      5-min Rain = 0
KAM1 171555Z 36009KT 03/M05 A3019 RMK A01 T00311053  RH  054%=      5-min Rain = 0
KAM1 171556Z 36009KT 03/M05 A3019 RMK A01 T00311052  RH  054%=      5-min Rain = 0
KAM1 171557Z 01008KT 03/M05 A3019 RMK A01 T00321051  RH  054%=      5-min Rain = 0
KAM1 171558Z 01008KT 03/M05 A3019 RMK A01 T00341049  RH  055%=      5-min Rain = 0
KAM1 171559Z 01009KT 04/M05 A3019 RMK A01 T00361050  RH  054%=      5-min Rain = 0
KAM1 171600Z 00008KT 04/M05 A3019 RMK A01 T00351052  RH  053%=      5-min Rain = 0
KAM1 171601Z 36009KT 04/M05 A3019 RMK A01 T00351051  RH  053%=      5-min Rain = 0
KAM1 171602Z 36008KT 04/M05 A3019 RMK A01 T00361052  RH  052%=      5-min Rain = 0
KAM1 171603Z 36008KT 04/M05 A3019 RMK A01 T00371051  RH  053%=      5-min Rain = 0
KAM1 171604Z 35009KT 04/M05 A302 RMK A01 T00381052  RH  052%=      5-min Rain = 0
KAM1 171605Z 00009KT 04/M05 A302 RMK A01 T00381052  RH  052%=      5-min Rain = 0
KAM1 171606Z 36008KT 04/M05 A302 RMK A01 T00381053  RH  052%=      5-min Rain = 0
KAM1 171607Z 36009KT 04/M05 A302 RMK A01 T00381051  RH  052%=      5-min Rain = 0
KAM1 171608Z 35009KT 04/M05 A302 RMK A01 T00391052  RH  051%=      5-min Rain = 0
KAM1 171609Z 35009KT 04/M05 A302 RMK A01 T00391054  RH  051%=      5-min Rain = 0
KAM1 171610Z 36010KT 04/M05 A302 RMK A01 T00391053  RH  051%=      5-min Rain = 0
KAM1 171611Z 36009KT 04/M05 A302 RMK A01 T00391054  RH  051%=      5-min Rain = 0
KAM1 171612Z 36009KT 04/M06 A302 RMK A01 T00401055  RH  050%=      5-min Rain = 0
KAM1 171613Z 01009KT 04/M05 A302 RMK A01 T00401054  RH  050%=      5-min Rain = 0
KAM1 171614Z 01009KT 04/M05 A302 RMK A01 T00411053  RH  050%=      5-min Rain = 0
KAM1 171615Z 35009KT 04/M05 A302 RMK A01 T00411054  RH  050%=      5-min Rain = 0
KAM1 171616Z 35009KT 04/M05 A302 RMK A01 T00421054  RH  050%=      5-min Rain = 0
KAM1 171617Z 35008KT 04/M05 A302 RMK A01 T00431054  RH  049%=      5-min Rain = 0
KAM1 171618Z 36009KT 04/M05 A302 RMK A01 T00431054  RH  049%=      5-min Rain = 0
KAM1 171619Z 01009KT 04/M06 A302 RMK A01 T00431055  RH  049%=      5-min Rain = 0
KAM1 171620Z 35009KT 04/M06 A302 RMK A01 T00431055  RH  049%=      5-min Rain = 0
KAM1 171621Z 35009KT 04/M06 A302 RMK A01 T00441055  RH  049%=      5-min Rain = 0
KAM1 171622Z 01009KT 05/M05 A302 RMK A01 T00451053  RH  049%=      5-min Rain = 0
KAM1 171623Z 36009KT 05/M05 A302 RMK A01 T00461054  RH  048%=      5-min Rain = 0
KAM1 171624Z 35011KT 05/M06 A302 RMK A01 T00461056  RH  048%=      5-min Rain = 0
KAM1 171625Z 35010KT 05/M06 A302 RMK A01 T00451056  RH  048%=      5-min Rain = 0
KAM1 171626Z 00007KT 05/M06 A302 RMK A01 T00451056  RH  048%=      5-min Rain = 0
KAM1 171627Z 00008KT 05/M05 A302 RMK A01 T00471052  RH  049%=      5-min Rain = 0
KAM1 171628Z 36010KT 05/M05 A302 RMK A01 T00501053  RH  047%=      5-min Rain = 0
KAM1 171629Z 35011KT 05/M06 A3021 RMK A01 T00491056  RH  047%=      5-min Rain = 0
KAM1 171630Z 35010KT 05/M06 A3021 RMK A01 T00491056  RH  047%=      5-min Rain = 0
KAM1 171631Z 35011KT 05/M06 A3021 RMK A01 T00491057  RH  046%=      5-min Rain = 0
KAM1 171632Z 36010KT 05/M06 A3021 RMK A01 T00491057  RH  046%=      5-min Rain = 0
KAM1 171633Z 36008KT 05/M06 A3021 RMK A01 T00491057  RH  046%=      5-min Rain = 0
KAM1 171634Z 35010KT 05/M06 A3021 RMK A01 T00501056  RH  046%=      5-min Rain = 0
KAM1 171635Z 36009KT 05/M06 A3021 RMK A01 T00511057  RH  046%=      5-min Rain = 0
KAM1 171636Z 36009KT 05/M06 A3021 RMK A01 T00501059  RH  045%=      5-min Rain = 0
KAM1 171637Z 36010KT 05/M06 A3021 RMK A01 T00511058  RH  045%=      5-min Rain = 0
KAM1 171638Z 00008KT 05/M06 A3021 RMK A01 T00521059  RH  045%=      5-min Rain = 0
KAM1 171639Z 35010KT 05/M06 A3021 RMK A01 T00521058  RH  045%=      5-min Rain = 0
KAM1 171640Z 00010KT 05/M06 A3021 RMK A01 T00521060  RH  044%=      5-min Rain = 0
KAM1 171641Z 36009KT 05/M06 A3021 RMK A01 T00511063  RH  044%=      5-min Rain = 0
KAM1 171642Z 35009KT 05/M06 A3021 RMK A01 T00501063  RH  044%=      5-min Rain = 0
KAM1 171643Z 01010KT 05/M06 A3021 RMK A01 T00521062  RH  044%=      5-min Rain = 0
KAM1 171644Z 00008KT 05/M06 A3021 RMK A01 T00511063  RH  043%=      5-min Rain = 0
KAM1 171645Z 01007KT 05/M06 A3021 RMK A01 T00521062  RH  044%=      5-min Rain = 0
KAM1 171646Z 00008KT 05/M07 A3021 RMK A01 T00531065  RH  042%=      5-min Rain = 0
KAM1 171647Z 35008KT 05/M06 A3021 RMK A01 T00541064  RH  042%=      5-min Rain = 0
KAM1 171648Z 35009KT 06/M06 A3021 RMK A01 T00551063  RH  042%=      5-min Rain = 0
KAM1 171649Z 34009KT 06/M06 A3021 RMK A01 T00571063  RH  042%=      5-min Rain = 0
KAM1 171650Z 35007KT 06/M07 A3021 RMK A01 T00571065  RH  041%=      5-min Rain = 0
KAM1 171651Z 36008KT 06/M07 A3021 RMK A01 T00551065  RH  042%=      5-min Rain = 0
KAM1 171652Z 35009KT 05/M06 A3021 RMK A01 T00541064  RH  042%=      5-min Rain = 0
KAM1 171653Z 35009KT 05/M06 A3021 RMK A01 T00541064  RH  042%=      5-min Rain = 0
KAM1 171654Z 35009KT 05/M07 A3021 RMK A01 T00531065  RH  042%=      5-min Rain = 0
KAM1 171655Z 36008KT 05/M06 A3021 RMK A01 T00541063  RH  043%=      5-min Rain = 0
KAM1 171656Z 35008KT 06/M06 A3021 RMK A01 T00561063  RH  042%=      5-min Rain = 0
KAM1 171657Z 35010KT 06/M06 A3021 RMK A01 T00561064  RH  042%=      5-min Rain = 0
KAM1 171658Z 36009KT 06/M07 A3021 RMK A01 T00561065  RH  042%=      5-min Rain = 0
KAM1 171659Z 36009KT 06/M07 A3021 RMK A01 T00551065  RH  041%=      5-min Rain = 0
KAM1 171700Z 36008KT 06/M07 A3021 RMK A01 T00551065  RH  042%=      5-min Rain = 0
KAM1 171701Z 35007KT 06/M06 A3021 RMK A01 T00561064  RH  042%=      5-min Rain = 0
KAM1 171702Z 35008KT 06/M06 A3021 RMK A01 T00581061  RH  042%=      5-min Rain = 0
KAM1 171703Z 00007KT 06/M07 A3021 RMK A01 T00591067  RH  040%=      5-min Rain = 0
KAM1 171704Z 36008KT 06/M07 A3021 RMK A01 T00551071  RH  040%=      5-min Rain = 0
KAM1 171705Z 01008KT 06/M07 A3021 RMK A01 T00561068  RH  040%=      5-min Rain = 0
KAM1 171706Z 00008KT 06/M07 A3021 RMK A01 T00581068  RH  040%=      5-min Rain = 0
KAM1 171707Z 35009KT 06/M07 A3021 RMK A01 T00581067  RH  040%=      5-min Rain = 0
KAM1 171708Z 36008KT 06/M07 A3021 RMK A01 T00561067  RH  041%=      5-min Rain = 0
KAM1 171709Z 36007KT 06/M07 A3021 RMK A01 T00571066  RH  041%=      5-min Rain = 0
KAM1 171710Z 35008KT 06/M06 A3021 RMK A01 T00591064  RH  041%=      5-min Rain = 0
KAM1 171711Z 35009KT 06/M07 A302 RMK A01 T00601065  RH  040%=      5-min Rain = 0
KAM1 171712Z 01006KT 06/M07 A302 RMK A01 T00581067  RH  040%=      5-min Rain = 0
KAM1 171713Z 02009KT 06/M07 A302 RMK A01 T00591068  RH  040%=      5-min Rain = 0
KAM1 171714Z 01009KT 06/M07 A302 RMK A01 T00591070  RH  039%=      5-min Rain = 0
KAM1 171715Z 02006KT 06/M07 A302 RMK A01 T00581072  RH  039%=      5-min Rain = 0
KAM1 171716Z 03007KT 06/M07 A302 RMK A01 T00581070  RH  039%=      5-min Rain = 0
KAM1 171717Z 01006KT 06/M07 A302 RMK A01 T00601070  RH  039%=      5-min Rain = 0
KAM1 171718Z 35007KT 06/M07 A302 RMK A01 T00611069  RH  039%=      5-min Rain = 0
KAM1 171719Z 00008KT 06/M07 A302 RMK A01 T00631068  RH  038%=      5-min Rain = 0
KAM1 171720Z 01009KT 07/M07 A302 RMK A01 T00651068  RH  038%=      5-min Rain = 0
KAM1 171721Z 36006KT 06/M07 A302 RMK A01 T00641071  RH  038%=      5-min Rain = 0
KAM1 171722Z 34007KT 06/M07 A302 RMK A01 T00631071  RH  038%=      5-min Rain = 0
KAM1 171723Z 34007KT 06/M07 A302 RMK A01 T00621071  RH  038%=      5-min Rain = 0
KAM1 171724Z 35008KT 06/M07 A302 RMK A01 T00631071  RH  038%=      5-min Rain = 0
KAM1 171725Z 00005KT 06/M07 A302 RMK A01 T00611072  RH  038%=      5-min Rain = 0
KAM1 171726Z 35008KT 06/M07 A302 RMK A01 T00601072  RH  038%=      5-min Rain = 0
KAM1 171727Z 34007KT 06/M07 A3019 RMK A01 T00601071  RH  038%=      5-min Rain = 0
KAM1 171728Z 35005KT 06/M07 A3019 RMK A01 T00601074  RH  038%=      5-min Rain = 0
KAM1 171729Z 35006KT 06/M07 A3019 RMK A01 T00591074  RH  038%=      5-min Rain = 0
KAM1 171730Z 36006KT 06/M07 A3019 RMK A01 T00611071  RH  038%=      5-min Rain = 0
KAM1 171731Z 34006KT 07/M07 A3019 RMK A01 T00651070  RH  037%=      5-min Rain = 0
KAM1 171732Z 34007KT 07/M07 A3019 RMK A01 T00661073  RH  036%=      5-min Rain = 0
KAM1 171733Z 33007KT 07/M07 A3019 RMK A01 T00661073  RH  036%=      5-min Rain = 0
KAM1 171734Z 34007KT 07/M07 A3019 RMK A01 T00661073  RH  036%=      5-min Rain = 0
KAM1 171735Z 35005KT 07/M07 A3019 RMK A01 T00651074  RH  036%=      5-min Rain = 0
KAM1 171736Z 01003KT 06/M08 A3019 RMK A01 T00631075  RH  036%=      5-min Rain = 0
KAM1 171737Z 02003KT 06/M07 A3019 RMK A01 T00621074  RH  037%=      5-min Rain = 0
KAM1 171738Z 35004KT 06/M07 A3018 RMK A01 T00631073  RH  037%=      5-min Rain = 0
KAM1 171739Z 33006KT 07/M07 A3018 RMK A01 T00661072  RH  037%=      5-min Rain = 0
KAM1 171740Z 36007KT 07/M08 A3018 RMK A01 T00681075  RH  035%=      5-min Rain = 0
KAM1 171741Z 02007KT 07/M08 A3018 RMK A01 T00671076  RH  035%=      5-min Rain = 0
KAM1 171742Z 02005KT 07/M08 A3018 RMK A01 T00681079  RH  034%=      5-min Rain = 0
KAM1 171743Z 00004KT 07/M08 A3018 RMK A01 T00661080  RH  035%=      5-min Rain = 0
KAM1 171744Z 01005KT 07/M08 A3018 RMK A01 T00651077  RH  036%=      5-min Rain = 0
KAM1 171745Z 35006KT 06/M08 A3018 RMK A01 T00641078  RH  036%=      5-min Rain = 0
KAM1 171746Z 35006KT 07/M08 A3018 RMK A01 T00661077  RH  035%=      5-min Rain = 0
KAM1 171747Z 36007KT 07/M08 A3018 RMK A01 T00681077  RH  035%=      5-min Rain = 0
KAM1 171748Z 02005KT 07/M08 A3018 RMK A01 T00691077  RH  034%=      5-min Rain = 0
KAM1 171749Z 01004KT 07/M08 A3018 RMK A01 T00691077  RH  034%=      5-min Rain = 0
KAM1 171750Z 02004KT 07/M08 A3018 RMK A01 T00671078  RH  034%=      5-min Rain = 0
KAM1 171751Z 01006KT 07/M08 A3018 RMK A01 T00661079  RH  035%=      5-min Rain = 0
KAM1 171752Z 01007KT 07/M08 A3018 RMK A01 T00681081  RH  034%=      5-min Rain = 0
KAM1 171753Z 34008KT 07/M08 A3017 RMK A01 T00701080  RH  033%=      5-min Rain = 0
KAM1 171754Z 35005KT 07/M08 A3017 RMK A01 T00691083  RH  033%=      5-min Rain = 0
KAM1 171755Z 31002KT 07/M08 A3017 RMK A01 T00681083  RH  033%=      5-min Rain = 0
KAM1 171756Z 01005KT 07/M08 A3017 RMK A01 T00671083  RH  034%=      5-min Rain = 0
KAM1 171757Z 02004KT 07/M08 A3017 RMK A01 T00661082  RH  034%=      5-min Rain = 0
KAM1 171758Z 03005KT 07/M08 A3017 RMK A01 T00691079  RH  034%=      5-min Rain = 0
KAM1 171759Z 03006KT 07/M08 A3017 RMK A01 T00701082  RH  033%=      5-min Rain = 0
KAM1 171800Z 35007KT 07/M08 A3017 RMK A01 T00691083  RH  033%=      5-min Rain = 0
KAM1 171801Z 36009KT 07/M09 A3017 RMK A01 T00711086  RH  032%=      5-min Rain = 0
KAM1 171802Z 01009KT 07/M09 A3017 RMK A01 T00741085  RH  031%=      5-min Rain = 0
KAM1 171803Z 36007KT 08/M09 A3017 RMK A01 T00751087  RH  031%=      5-min Rain = 0
KAM1 171804Z 35007KT 08/M09 A3017 RMK A01 T00751087  RH  031%=      5-min Rain = 0
KAM1 171805Z 36007KT 07/M09 A3017 RMK A01 T00741087  RH  031%=      5-min Rain = 0
KAM1 171806Z 01006KT 07/M09 A3017 RMK A01 T00731085  RH  032%=      5-min Rain = 0
KAM1 171807Z 02005KT 07/M08 A3017 RMK A01 T00741084  RH  032%=      5-min Rain = 0
KAM1 171808Z 03007KT 08/M08 A3016 RMK A01 T00771081  RH  032%=      5-min Rain = 0
KAM1 171809Z 02006KT 08/M08 A3016 RMK A01 T00791083  RH  031%=      5-min Rain = 0
KAM1 171810Z 01006KT 08/M09 A3016 RMK A01 T00771085  RH  031%=      5-min Rain = 0
KAM1 171811Z 01006KT 08/M08 A3016 RMK A01 T00761084  RH  031%=      5-min Rain = 0
KAM1 171812Z 01006KT 08/M08 A3016 RMK A01 T00771082  RH  031%=      5-min Rain = 0
KAM1 171813Z 35007KT 08/M08 A3016 RMK A01 T00781083  RH  031%=      5-min Rain = 0
KAM1 171814Z 34006KT 08/M08 A3016 RMK A01 T00791083  RH  031%=      5-min Rain = 0
KAM1 171815Z 34006KT 08/M08 A3016 RMK A01 T00791083  RH  031%=      5-min Rain = 0
KAM1 171816Z 34007KT 08/M09 A3016 RMK A01 T00781085  RH  031%=      5-min Rain = 0
KAM1 171817Z 35007KT 08/M09 A3016 RMK A01 T00761086  RH  031%=      5-min Rain = 0
KAM1 171818Z 35006G11KT 08/M08 A3016 RMK A01 T00781084  RH  031%=      5-min Rain = 0
KAM1 171819Z 36009KT 08/M09 A3016 RMK A01 T00781087  RH  030%=      5-min Rain = 0
KAM1 171820Z 01011KT 08/M09 A3016 RMK A01 T00791087  RH  030%=      5-min Rain = 0
KAM1 171821Z 01008KT 08/M09 A3016 RMK A01 T00791090  RH  029%=      5-min Rain = 0
KAM1 171822Z 01008KT 08/M09 A3016 RMK A01 T00771091  RH  029%=      5-min Rain = 0
KAM1 171823Z 00007KT 08/M09 A3016 RMK A01 T00771089  RH  030%=      5-min Rain = 0
KAM1 171824Z 01005G11KT 08/M09 A3016 RMK A01 T00761090  RH  030%=      5-min Rain = 0
KAM1 171825Z 01010KT 08/M09 A3016 RMK A01 T00771089  RH  030%=      5-min Rain = 0
KAM1 171826Z 01009KT 08/M09 A3016 RMK A01 T00801090  RH  029%=      5-min Rain = 0
KAM1 171827Z 01007KT 08/M09 A3016 RMK A01 T00791093  RH  029%=      5-min Rain = 0
KAM1 171828Z 03008KT 08/M09 A3015 RMK A01 T00771093  RH  029%=      5-min Rain = 0
KAM1 171829Z 03007KT 08/M09 A3015 RMK A01 T00771092  RH  029%=      5-min Rain = 0
KAM1 171830Z 03009KT 08/M09 A3015 RMK A01 T00771093  RH  029%=      5-min Rain = 0
KAM1 171831Z 02008KT 08/M09 A3015 RMK A01 T00781094  RH  028%=      5-min Rain = 0
KAM1 171832Z 02009KT 08/M09 A3015 RMK A01 T00791092  RH  029%=      5-min Rain = 0
KAM1 171833Z 01007KT 08/M09 A3015 RMK A01 T00801090  RH  029%=      5-min Rain = 0
KAM1 171834Z 02010KT 08/M09 A3015 RMK A01 T00801091  RH  029%=      5-min Rain = 0
KAM1 171835Z 02009KT 08/M09 A3015 RMK A01 T00801092  RH  028%=      5-min Rain = 0
KAM1 171836Z 01008KT 08/M09 A3015 RMK A01 T00801092  RH  028%=      5-min Rain = 0
KAM1 171837Z 02008KT 08/M09 A3015 RMK A01 T00791092  RH  029%=      5-min Rain = 0
KAM1 171838Z 35008KT 08/M09 A3014 RMK A01 T00791090  RH  029%=      5-min Rain = 0
KAM1 171839Z 02006KT 08/M09 A3014 RMK A01 T00791090  RH  029%=      5-min Rain = 0
KAM1 171840Z 04007KT 08/M09 A3014 RMK A01 T00801087  RH  030%=      5-min Rain = 0
KAM1 171841Z 02007KT 08/M09 A3014 RMK A01 T00811089  RH  029%=      5-min Rain = 0
KAM1 171842Z 01009KT 08/M09 A3014 RMK A01 T00801089  RH  029%=      5-min Rain = 0
KAM1 171843Z 01009KT 08/M08 A3014 RMK A01 T00841084  RH  029%=      5-min Rain = 0
KAM1 171844Z 36011KT 09/M09 A3014 RMK A01 T00881087  RH  028%=      5-min Rain = 0
KAM1 171845Z 00010KT 09/M09 A3014 RMK A01 T00851091  RH  028%=      5-min Rain = 0
KAM1 171846Z 00010KT 08/M09 A3014 RMK A01 T00831092  RH  028%=      5-min Rain = 0
KAM1 171847Z 36008KT 08/M09 A3014 RMK A01 T00801092  RH  028%=      5-min Rain = 0
KAM1 171848Z 00009KT 08/M09 A3014 RMK A01 T00811089  RH  029%=      5-min Rain = 0
KAM1 171849Z 36003KT 08/M09 A3014 RMK A01 T00801091  RH  029%=      5-min Rain = 0
KAM1 171850Z 35004KT 08/M09 A3014 RMK A01 T00781091  RH  029%=      5-min Rain = 0
KAM1 171851Z 01008KT 08/M09 A3014 RMK A01 T00781089  RH  029%=      5-min Rain = 0
KAM1 171852Z 36006KT 08/M09 A3014 RMK A01 T00821088  RH  029%=      5-min Rain = 0
KAM1 171853Z 36008KT 08/M09 A3014 RMK A01 T00841088  RH  029%=      5-min Rain = 0
KAM1 171854Z 01010KT 09/M09 A3014 RMK A01 T00861090  RH  028%=      5-min Rain = 0
KAM1 171855Z 01009KT 09/M09 A3014 RMK A01 T00851093  RH  027%=      5-min Rain = 0
KAM1 171856Z 01007KT 08/M09 A3014 RMK A01 T00821093  RH  028%=      5-min Rain = 0
KAM1 171857Z 02004KT 08/M09 A3014 RMK A01 T00811092  RH  028%=      5-min Rain = 0
KAM1 171858Z 02006KT 08/M09 A3014 RMK A01 T00821090  RH  029%=      5-min Rain = 0
KAM1 171859Z 01009KT 08/M09 A3014 RMK A01 T00841089  RH  028%=      5-min Rain = 0
KAM1 171900Z 02010KT 09/M09 A3014 RMK A01 T00861089  RH  028%=      5-min Rain = 0
KAM1 171901Z 01009KT 08/M09 A3014 RMK A01 T00841093  RH  027%=      5-min Rain = 0
KAM1 171902Z 02006KT 08/M09 A3014 RMK A01 T00831092  RH  028%=      5-min Rain = 0
KAM1 171903Z 03005KT 08/M09 A3014 RMK A01 T00821091  RH  028%=      5-min Rain = 0
KAM1 171904Z 02003KT 08/M09 A3014 RMK A01 T00801093  RH  028%=      5-min Rain = 0
KAM1 171905Z 03005KT 08/M09 A3014 RMK A01 T00791092  RH  029%=      5-min Rain = 0
KAM1 171906Z 01004KT 08/M09 A3014 RMK A01 T00811089  RH  029%=      5-min Rain = 0
KAM1 171907Z 04005KT 08/M09 A3014 RMK A01 T00841087  RH  029%=      5-min Rain = 0
KAM1 171908Z 01008KT 09/M09 A3014 RMK A01 T00861088  RH  028%=      5-min Rain = 0
KAM1 171909Z 00008KT 09/M09 A3014 RMK A01 T00861090  RH  028%=      5-min Rain = 0
KAM1 171910Z 34010KT 08/M09 A3013 RMK A01 T00841092  RH  028%=      5-min Rain = 0
KAM1 171911Z 34011KT 09/M09 A3013 RMK A01 T00851090  RH  028%=      5-min Rain = 0
KAM1 171912Z 35009KT 09/M09 A3014 RMK A01 T00861090  RH  028%=      5-min Rain = 0
KAM1 171913Z 35009KT 08/M09 A3014 RMK A01 T00841091  RH  028%=      5-min Rain = 0
KAM1 171914Z 36008KT 08/M09 A3014 RMK A01 T00831091  RH  028%=      5-min Rain = 0
KAM1 171915Z 00007KT 08/M09 A3013 RMK A01 T00831090  RH  028%=      5-min Rain = 0
KAM1 171916Z 01004KT 08/M09 A3013 RMK A01 T00821091  RH  028%=      5-min Rain = 0
KAM1 171917Z 00004KT 08/M09 A3013 RMK A01 T00811091  RH  029%=      5-min Rain = 0
KAM1 171918Z 35007KT 08/M09 A3013 RMK A01 T00841086  RH  029%=      5-min Rain = 0
KAM1 171919Z 34006KT 09/M09 A3013 RMK A01 T00871087  RH  028%=      5-min Rain = 0
KAM1 171920Z 35009KT 09/M09 A3013 RMK A01 T00871088  RH  028%=      5-min Rain = 0
KAM1 171921Z 35008KT 09/M09 A3013 RMK A01 T00861090  RH  028%=      5-min Rain = 0
KAM1 171922Z 35005KT 08/M09 A3013 RMK A01 T00841091  RH  028%=      5-min Rain = 0
KAM1 171923Z 00007KT 08/M09 A3013 RMK A01 T00831091  RH  028%=      5-min Rain = 0
KAM1 171924Z 00006KT 08/M09 A3013 RMK A01 T00841089  RH  028%=      5-min Rain = 0
KAM1 171925Z 00004KT 09/M09 A3013 RMK A01 T00851089  RH  028%=      5-min Rain = 0
KAM1 171926Z 34004KT 09/M09 A3013 RMK A01 T00851091  RH  028%=      5-min Rain = 0
KAM1 171927Z 34007KT 08/M09 A3013 RMK A01 T00841089  RH  028%=      5-min Rain = 0
KAM1 171928Z 35008KT 08/M09 A3013 RMK A01 T00841089  RH  028%=      5-min Rain = 0
KAM1 171929Z 36006KT 09/M09 A3013 RMK A01 T00851090  RH  028%=      5-min Rain = 0
KAM1 171930Z 35008KT 08/M09 A3013 RMK A01 T00841092  RH  028%=      5-min Rain = 0
KAM1 171931Z 35010KT 08/M09 A3013 RMK A01 T00841091  RH  028%=      5-min Rain = 0
KAM1 171932Z 35008KT 08/M09 A3013 RMK A01 T00841092  RH  028%=      5-min Rain = 0
KAM1 171933Z 00004KT 08/M09 A3013 RMK A01 T00831093  RH  028%=      5-min Rain = 0
KAM1 171934Z 02008KT 08/M09 A3013 RMK A01 T00831092  RH  028%=      5-min Rain = 0
KAM1 171935Z 02007KT 08/M09 A3013 RMK A01 T00841091  RH  028%=      5-min Rain = 0
KAM1 171936Z 01006KT 09/M09 A3013 RMK A01 T00851089  RH  028%=      5-min Rain = 0
KAM1 171937Z 01004KT 09/M09 A3013 RMK A01 T00851092  RH  028%=      5-min Rain = 0
KAM1 171938Z 01002KT 08/M09 A3013 RMK A01 T00831092  RH  028%=      5-min Rain = 0
KAM1 171939Z 00004KT 08/M09 A3013 RMK A01 T00831091  RH  028%=      5-min Rain = 0
KAM1 171940Z 35005KT 08/M09 A3012 RMK A01 T00831091  RH  028%=      5-min Rain = 0
KAM1 171941Z 35005KT 09/M09 A3012 RMK A01 T00851089  RH  028%=      5-min Rain = 0
KAM1 171942Z 32006KT 09/M09 A3012 RMK A01 T00881087  RH  028%=      5-min Rain = 0
KAM1 171943Z 36004KT 09/M09 A3012 RMK A01 T00891088  RH  028%=      5-min Rain = 0
KAM1 171944Z 36002KT 09/M09 A3012 RMK A01 T00861092  RH  027%=      5-min Rain = 0
KAM1 171945Z 34006KT 08/M09 A3012 RMK A01 T00841092  RH  028%=      5-min Rain = 0
KAM1 171946Z 32005KT 09/M09 A3012 RMK A01 T00851088  RH  028%=      5-min Rain = 0
KAM1 171947Z 34003KT 09/M09 A3012 RMK A01 T00861090  RH  028%=      5-min Rain = 0
KAM1 171948Z 36004KT 09/M09 A3012 RMK A01 T00871088  RH  028%=      5-min Rain = 0
KAM1 171949Z 33002KT 09/M09 A3012 RMK A01 T00851092  RH  028%=      5-min Rain = 0
KAM1 171950Z 32001KT 08/M09 A3012 RMK A01 T00841091  RH  028%=      5-min Rain = 0
KAM1 171951Z 34003G8KT 09/M09 A3012 RMK A01 T00851091  RH  028%=      5-min Rain = 0
KAM1 171952Z 01005KT 09/M09 A3012 RMK A01 T00851090  RH  028%=      5-min Rain = 0
KAM1 171953Z 03007KT 09/M09 A3012 RMK A01 T00851091  RH  028%=      5-min Rain = 0
KAM1 171954Z 02006KT 08/M09 A3012 RMK A01 T00841090  RH  028%=      5-min Rain = 0
KAM1 171955Z 02004KT 09/M09 A3011 RMK A01 T00851089  RH  028%=      5-min Rain = 0
KAM1 171956Z 02006KT 09/M09 A3011 RMK A01 T00851090  RH  028%=      5-min Rain = 0
KAM1 171957Z 01005KT 08/M09 A3011 RMK A01 T00841089  RH  028%=      5-min Rain = 0
KAM1 171958Z 02005KT 09/M09 A3011 RMK A01 T00851087  RH  029%=      5-min Rain = 0
KAM1 171959Z 01003KT 09/M09 A3011 RMK A01 T00861088  RH  028%=      5-min Rain = 0
KAM1 172000Z 34003KT 09/M09 A3011 RMK A01 T00851089  RH  028%=      5-min Rain = 0
KAM1 172001Z 32006KT 08/M09 A3011 RMK A01 T00841088  RH  029%=      5-min Rain = 0
KAM1 172002Z 31007KT 09/M09 A3011 RMK A01 T00871086  RH  029%=      5-min Rain = 0
KAM1 172003Z 30005KT 09/M09 A3011 RMK A01 T00881087  RH  028%=      5-min Rain = 0
KAM1 172004Z 32003KT 09/M09 A3011 RMK A01 T00881088  RH  028%=      5-min Rain = 0
KAM1 172005Z 31003KT 09/M09 A3011 RMK A01 T00861088  RH  028%=      5-min Rain = 0
KAM1 172006Z 28006KT 09/M09 A3011 RMK A01 T00861086  RH  029%=      5-min Rain = 0
KAM1 172007Z 27006KT 09/M09 A3011 RMK A01 T00881086  RH  028%=      5-min Rain = 0
KAM1 172008Z 27006KT 09/M09 A3011 RMK A01 T00881088  RH  028%=      5-min Rain = 0
KAM1 172009Z 26005KT 09/M09 A3011 RMK A01 T00871087  RH  028%=      5-min Rain = 0
KAM1 172010Z 26006KT 09/M09 A3011 RMK A01 T00881087  RH  028%=      5-min Rain = 0
KAM1 172011Z 24007KT 09/M09 A3011 RMK A01 T00881087  RH  028%=      5-min Rain = 0
KAM1 172012Z 26005KT 09/M09 A3011 RMK A01 T00881087  RH  028%=      5-min Rain = 0
KAM1 172013Z 28005KT 09/M09 A3011 RMK A01 T00901085  RH  028%=      5-min Rain = 0
KAM1 172014Z 30004KT 09/M09 A3011 RMK A01 T00901087  RH  028%=      5-min Rain = 0
KAM1 172015Z 32005KT 09/M09 A3011 RMK A01 T00891086  RH  028%=      5-min Rain = 0
KAM1 172016Z 31004KT 09/M09 A3011 RMK A01 T00881086  RH  028%=      5-min Rain = 0
KAM1 172017Z 28003KT 09/M09 A3011 RMK A01 T00881085  RH  028%=      5-min Rain = 0
KAM1 172018Z 28005KT 09/M08 A3011 RMK A01 T00911084  RH  028%=      5-min Rain = 0
KAM1 172019Z 29003KT 09/M09 A3011 RMK A01 T00911085  RH  028%=      5-min Rain = 0
KAM1 172020Z 28001KT 09/M09 A3011 RMK A01 T00901086  RH  028%=      5-min Rain = 0
KAM1 172021Z 24002KT 09/M09 A3011 RMK A01 T00911085  RH  028%=      5-min Rain = 0
KAM1 172022Z 23003KT 09/M08 A3011 RMK A01 T00931084  RH  028%=      5-min Rain = 0
KAM1 172023Z 25003KT 09/M08 A3011 RMK A01 T00941084  RH  028%=      5-min Rain = 0
KAM1 172024Z 26005KT 09/M08 A3011 RMK A01 T00941084  RH  028%=      5-min Rain = 0
KAM1 172025Z 25005KT 09/M08 A3011 RMK A01 T00941084  RH  028%=      5-min Rain = 0
KAM1 172026Z 24005KT 10/M08 A3011 RMK A01 T00951084  RH  027%=      5-min Rain = 0
KAM1 172027Z 24003KT 09/M09 A3011 RMK A01 T00931085  RH  027%=      5-min Rain = 0
KAM1 172028Z 21002KT 09/M09 A3011 RMK A01 T00921085  RH  028%=      5-min Rain = 0
KAM1 172029Z 33005KT 09/M08 A3011 RMK A01 T00931083  RH  028%=      5-min Rain = 0
KAM1 172030Z 32005KT 09/M08 A3011 RMK A01 T00931083  RH  028%=      5-min Rain = 0
KAM1 172031Z 31006KT 09/M08 A3011 RMK A01 T00921083  RH  028%=      5-min Rain = 0
KAM1 172032Z 31008KT 09/M08 A3011 RMK A01 T00941081  RH  028%=      5-min Rain = 0
KAM1 172033Z 31007KT 09/M08 A3011 RMK A01 T00931083  RH  028%=      5-min Rain = 0
KAM1 172034Z 30006KT 09/M08 A3011 RMK A01 T00921082  RH  028%=      5-min Rain = 0
KAM1 172035Z 31006KT 09/M08 A3011 RMK A01 T00921082  RH  028%=      5-min Rain = 0
KAM1 172036Z 33003KT 09/M08 A3011 RMK A01 T00911083  RH  028%=      5-min Rain = 0
KAM1 172037Z 32002KT 09/M08 A3011 RMK A01 T00911083  RH  028%=      5-min Rain = 0
KAM1 172038Z 28001KT 09/M08 A3011 RMK A01 T00911083  RH  028%=      5-min Rain = 0
KAM1 172039Z 23003KT 09/M08 A3011 RMK A01 T00921081  RH  028%=      5-min Rain = 0
KAM1 172040Z 23001KT 09/M08 A3011 RMK A01 T00921084  RH  028%=      5-min Rain = 0
KAM1 172041Z 02001KT 09/M08 A3011 RMK A01 T00921083  RH  028%=      5-min Rain = 0
KAM1 172042Z 04002KT 09/M08 A3011 RMK A01 T00931083  RH  028%=      5-min Rain = 0
KAM1 172043Z 08002KT 09/M08 A3011 RMK A01 T00931083  RH  028%=      5-min Rain = 0
KAM1 172044Z 07001KT 09/M09 A3011 RMK A01 T00901086  RH  028%=      5-min Rain = 0
KAM1 172045Z 33003KT 09/M08 A3011 RMK A01 T00901083  RH  029%=      5-min Rain = 0
KAM1 172046Z 35004KT 09/M08 A3011 RMK A01 T00921082  RH  028%=      5-min Rain = 0
KAM1 172047Z 35005KT 09/M08 A3011 RMK A01 T00931082  RH  028%=      5-min Rain = 0
KAM1 172048Z 33004KT 09/M08 A3011 RMK A01 T00921082  RH  028%=      5-min Rain = 0
KAM1 172049Z 32003KT 09/M08 A3011 RMK A01 T00921081  RH  029%=      5-min Rain = 0
KAM1 172050Z 33002KT 09/M08 A3011 RMK A01 T00941080  RH  028%=      5-min Rain = 0
KAM1 172051Z 30005KT 10/M08 A301 RMK A01 T00961079  RH  028%=      5-min Rain = 0
KAM1 172052Z 29006KT 10/M08 A301 RMK A01 T00971080  RH  028%=      5-min Rain = 0
KAM1 172053Z 29004KT 10/M08 A301 RMK A01 T00961082  RH  027%=      5-min Rain = 0
KAM1 172054Z 28004KT 10/M08 A301 RMK A01 T00961082  RH  028%=      5-min Rain = 0
KAM1 172055Z 30007KT 10/M08 A301 RMK A01 T00971079  RH  028%=      5-min Rain = 0
KAM1 172056Z 30008KT 10/M08 A301 RMK A01 T00991079  RH  028%=      5-min Rain = 0
KAM1 172057Z 29006KT 10/M08 A301 RMK A01 T00971083  RH  027%=      5-min Rain = 0
KAM1 172058Z 31003KT 09/M08 A301 RMK A01 T00941084  RH  028%=      5-min Rain = 0
KAM1 172059Z 30003KT 09/M08 A301 RMK A01 T00931083  RH  028%=      5-min Rain = 0
KAM1 172100Z 29005KT 10/M08 A301 RMK A01 T00951079  RH  028%=      5-min Rain = 0
KAM1 172101Z 29006KT 10/M08 A301 RMK A01 T00981079  RH  028%=      5-min Rain = 0
KAM1 172102Z 29007KT 10/M08 A301 RMK A01 T00981081  RH  028%=      5-min Rain = 0
KAM1 172103Z 28006KT 10/M08 A301 RMK A01 T00961083  RH  028%=      5-min Rain = 0
KAM1 172104Z 31006KT 09/M08 A301 RMK A01 T00941083  RH  028%=      5-min Rain = 0
KAM1 172105Z 31006KT 09/M08 A301 RMK A01 T00941082  RH  028%=      5-min Rain = 0
KAM1 172106Z 30002KT 09/M08 A301 RMK A01 T00931083  RH  028%=      5-min Rain = 0
KAM1 172107Z 27005KT 09/M08 A301 RMK A01 T00931082  RH  028%=      5-min Rain = 0
KAM1 172108Z 28005KT 09/M08 A301 RMK A01 T00941082  RH  028%=      5-min Rain = 0
KAM1 172109Z 28003KT 10/M08 A301 RMK A01 T00951081  RH  028%=      5-min Rain = 0
KAM1 172110Z 32005KT 10/M08 A301 RMK A01 T00961081  RH  028%=      5-min Rain = 0
KAM1 172111Z 33004KT 10/M08 A301 RMK A01 T00961082  RH  028%=      5-min Rain = 0
KAM1 172112Z 29004KT 10/M08 A301 RMK A01 T00951081  RH  028%=      5-min Rain = 0
KAM1 172113Z 26003KT 10/M08 A301 RMK A01 T00951082  RH  028%=      5-min Rain = 0
KAM1 172114Z 26001KT 10/M08 A301 RMK A01 T00951083  RH  028%=      5-min Rain = 0
KAM1 172115Z 27002KT 10/M08 A301 RMK A01 T00951082  RH  028%=      5-min Rain = 0
KAM1 172116Z 29003KT 10/M08 A301 RMK A01 T00971082  RH  028%=      5-min Rain = 0
KAM1 172117Z 30004KT 10/M08 A301 RMK A01 T00971082  RH  027%=      5-min Rain = 0
KAM1 172118Z 31005KT 10/M08 A301 RMK A01 T00971081  RH  028%=      5-min Rain = 0
KAM1 172119Z 32004KT 10/M08 A301 RMK A01 T00961082  RH  028%=      5-min Rain = 0
KAM1 172120Z 30002KT 09/M08 A301 RMK A01 T00931084  RH  028%=      5-min Rain = 0
KAM1 172121Z 31003KT 09/M08 A301 RMK A01 T00921083  RH  028%=      5-min Rain = 0
KAM1 172122Z 32005KT 09/M08 A301 RMK A01 T00921082  RH  028%=      5-min Rain = 0
KAM1 172123Z 31006KT 09/M08 A301 RMK A01 T00921081  RH  029%=      5-min Rain = 0
KAM1 172124Z 31004KT 09/M08 A301 RMK A01 T00921081  RH  029%=      5-min Rain = 0
KAM1 172125Z 32004KT 09/M08 A301 RMK A01 T00921081  RH  028%=      5-min Rain = 0
KAM1 172126Z 32003KT 09/M08 A3009 RMK A01 T00921082  RH  028%=      5-min Rain = 0
KAM1 172127Z 27002KT 09/M08 A3009 RMK A01 T00921081  RH  029%=      5-min Rain = 0
KAM1 172128Z 26005KT 09/M08 A3009 RMK A01 T00931079  RH  029%=      5-min Rain = 0
KAM1 172129Z 26004KT 10/M08 A3009 RMK A01 T00961079  RH  028%=      5-min Rain = 0
KAM1 172130Z 25004KT 10/M08 A3009 RMK A01 T00961080  RH  028%=      5-min Rain = 0
KAM1 172131Z 24005KT 10/M08 A3009 RMK A01 T00961081  RH  028%=      5-min Rain = 0
KAM1 172132Z 23004KT 10/M08 A3009 RMK A01 T00971080  RH  028%=      5-min Rain = 0
KAM1 172133Z 21002KT 10/M08 A3009 RMK A01 T00961082  RH  028%=      5-min Rain = 0
KAM1 172134Z 25002KT 10/M08 A3009 RMK A01 T00951081  RH  028%=      5-min Rain = 0
KAM1 172135Z 30004KT 10/M08 A3009 RMK A01 T00961080  RH  028%=      5-min Rain = 0
KAM1 172136Z 30004KT 10/M08 A3009 RMK A01 T00961080  RH  028%=      5-min Rain = 0
KAM1 172137Z 32004KT 10/M08 A3009 RMK A01 T00961079  RH  028%=      5-min Rain = 0
KAM1 172138Z 32002KT 10/M08 A3009 RMK A01 T00961080  RH  028%=      5-min Rain = 0
KAM1 172139Z 34002KT 09/M08 A3009 RMK A01 T00941082  RH  028%=      5-min Rain = 0
KAM1 172140Z 36001KT 09/M08 A3009 RMK A01 T00921083  RH  028%=      5-min Rain = 0
KAM1 172141Z 35002KT 09/M08 A3009 RMK A01 T00921081  RH  029%=      5-min Rain = 0
KAM1 172142Z 32004KT 09/M08 A3009 RMK A01 T00921080  RH  029%=      5-min Rain = 0
KAM1 172143Z 31004KT 09/M08 A3009 RMK A01 T00941080  RH  029%=      5-min Rain = 0
KAM1 172144Z 32005KT 09/M08 A3009 RMK A01 T00941080  RH  028%=      5-min Rain = 0
KAM1 172145Z 32006KT 10/M08 A3009 RMK A01 T00951079  RH  028%=      5-min Rain = 0
KAM1 172146Z 32005KT 10/M08 A3009 RMK A01 T00961080  RH  028%=      5-min Rain = 0
KAM1 172147Z 29004KT 09/M08 A3009 RMK A01 T00941081  RH  028%=      5-min Rain = 0
KAM1 172148Z 27004KT 09/M08 A3009 RMK A01 T00941080  RH  028%=      5-min Rain = 0
KAM1 172149Z 26005KT 10/M08 A3009 RMK A01 T00961078  RH  029%=      5-min Rain = 0
KAM1 172150Z 26005KT 10/M08 A3009 RMK A01 T00971079  RH  028%=      5-min Rain = 0
KAM1 172151Z 24005KT 10/M08 A3008 RMK A01 T00981079  RH  028%=      5-min Rain = 0
KAM1 172152Z 25004KT 10/M08 A3008 RMK A01 T00991079  RH  028%=      5-min Rain = 0
KAM1 172153Z 27004KT 10/M08 A3008 RMK A01 T01001077  RH  028%=      5-min Rain = 0
KAM1 172154Z 31003KT 10/M08 A3008 RMK A01 T01021078  RH  027%=      5-min Rain = 0
KAM1 172155Z 30003KT 10/M08 A3008 RMK A01 T01001080  RH  027%=      5-min Rain = 0
KAM1 172156Z 32002KT 10/M08 A3008 RMK A01 T00991080  RH  028%=      5-min Rain = 0
KAM1 172157Z 28004KT 10/M08 A3008 RMK A01 T00981080  RH  028%=      5-min Rain = 0
KAM1 172158Z 29005KT 10/M08 A3008 RMK A01 T00981079  RH  028%=      5-min Rain = 0
KAM1 172159Z 26004KT 10/M08 A3008 RMK A01 T00981079  RH  028%=      5-min Rain = 0
KAM1 172200Z 24006KT 10/M08 A3008 RMK A01 T00981079  RH  028%=      5-min Rain = 0
KAM1 172201Z 23004KT 10/M08 A3008 RMK A01 T00981081  RH  028%=      5-min Rain = 0
KAM1 172202Z 25004KT 10/M08 A3008 RMK A01 T00961081  RH  028%=      5-min Rain = 0
KAM1 172203Z 24004KT 10/M08 A3008 RMK A01 T00961081  RH  028%=      5-min Rain = 0
KAM1 172204Z 26004KT 10/M08 A3008 RMK A01 T00961080  RH  028%=      5-min Rain = 0
KAM1 172205Z 25002KT 10/M08 A3008 RMK A01 T00971080  RH  028%=      5-min Rain = 0
KAM1 172206Z 24004KT 10/M08 A3008 RMK A01 T00971081  RH  028%=      5-min Rain = 0
KAM1 172207Z 24004KT 10/M08 A3008 RMK A01 T00971081  RH  028%=      5-min Rain = 0
KAM1 172208Z 26003KT 10/M08 A3008 RMK A01 T00981080  RH  028%=      5-min Rain = 0
KAM1 172209Z 26002KT 10/M08 A3008 RMK A01 T00981079  RH  028%=      5-min Rain = 0
KAM1 172210Z 28000KT 10/M08 A3008 RMK A01 T00991079  RH  028%=      5-min Rain = 0
KAM1 172211Z 27000KT 10/M08 A3008 RMK A01 T00991079  RH  028%=      5-min Rain = 0
KAM1 172212Z 16001KT 10/M08 A3008 RMK A01 T01001079  RH  027%=      5-min Rain = 0
KAM1 172213Z 19002KT 10/M08 A3008 RMK A01 T01021079  RH  027%=      5-min Rain = 0
KAM1 172214Z 18002KT 10/M08 A3008 RMK A01 T01031079  RH  027%=      5-min Rain = 0
KAM1 172215Z 23003KT 10/M08 A3007 RMK A01 T01021080  RH  027%=      5-min Rain = 0
KAM1 172216Z 25003KT 10/M08 A3007 RMK A01 T01001081  RH  027%=      5-min Rain = 0
KAM1 172217Z 23004KT 10/M08 A3007 RMK A01 T00981081  RH  027%=      5-min Rain = 0
KAM1 172218Z 25006KT 10/M08 A3007 RMK A01 T00991080  RH  028%=      5-min Rain = 0
KAM1 172219Z 26007KT 10/M08 A3007 RMK A01 T00991079  RH  028%=      5-min Rain = 0
KAM1 172220Z 25006KT 10/M08 A3007 RMK A01 T00981079  RH  028%=      5-min Rain = 0
KAM1 172221Z 26005KT 10/M08 A3007 RMK A01 T00971080  RH  028%=      5-min Rain = 0
KAM1 172222Z 28005KT 10/M08 A3007 RMK A01 T00981079  RH  028%=      5-min Rain = 0
KAM1 172223Z 28004KT 10/M08 A3007 RMK A01 T00981079  RH  028%=      5-min Rain = 0
KAM1 172224Z 24004KT 10/M08 A3007 RMK A01 T00991078  RH  028%=      5-min Rain = 0
KAM1 172225Z 26004KT 10/M08 A3007 RMK A01 T01001078  RH  028%=      5-min Rain = 0
KAM1 172226Z 23004KT 10/M08 A3007 RMK A01 T01001078  RH  028%=      5-min Rain = 0
KAM1 172227Z 23004KT 10/M08 A3007 RMK A01 T01011079  RH  027%=      5-min Rain = 0
KAM1 172228Z 22005KT 10/M08 A3007 RMK A01 T01001079  RH  027%=      5-min Rain = 0
KAM1 172229Z 23006KT 10/M08 A3007 RMK A01 T01001080  RH  027%=      5-min Rain = 0
KAM1 172230Z 23005KT 10/M08 A3007 RMK A01 T00981082  RH  027%=      5-min Rain = 0
KAM1 172231Z 23005KT 10/M08 A3007 RMK A01 T00971082  RH  027%=      5-min Rain = 0
KAM1 172232Z 24004KT 10/M08 A3007 RMK A01 T00961082  RH  028%=      5-min Rain = 0
KAM1 172233Z 26003KT 10/M08 A3007 RMK A01 T00961082  RH  028%=      5-min Rain = 0
KAM1 172234Z 25004KT 10/M08 A3007 RMK A01 T00961081  RH  028%=      5-min Rain = 0
KAM1 172235Z 22006KT 10/M08 A3007 RMK A01 T00961082  RH  028%=      5-min Rain = 0
KAM1 172236Z 20007KT 10/M08 A3007 RMK A01 T00971081  RH  028%=      5-min Rain = 0
KAM1 172237Z 20005KT 10/M08 A3007 RMK A01 T00961081  RH  028%=      5-min Rain = 0
KAM1 172238Z 21004KT 10/M08 A3007 RMK A01 T00951082  RH  028%=      5-min Rain = 0
KAM1 172239Z 19005KT 10/M08 A3007 RMK A01 T00951081  RH  028%=      5-min Rain = 0
KAM1 172240Z 20004KT 10/M08 A3007 RMK A01 T00951081  RH  028%=      5-min Rain = 0
KAM1 172241Z 22005KT 10/M08 A3007 RMK A01 T00951081  RH  028%=      5-min Rain = 0
KAM1 172242Z 22004KT 10/M08 A3007 RMK A01 T00951081  RH  028%=      5-min Rain = 0
KAM1 172243Z 24005KT 09/M08 A3007 RMK A01 T00941081  RH  028%=      5-min Rain = 0
KAM1 172244Z 23006KT 10/M08 A3007 RMK A01 T00951081  RH  028%=      5-min Rain = 0
KAM1 172245Z 23007KT 09/M08 A3007 RMK A01 T00941082  RH  028%=      5-min Rain = 0
KAM1 172246Z 23006KT 09/M08 A3006 RMK A01 T00941082  RH  028%=      5-min Rain = 0
KAM1 172247Z 24004KT 09/M08 A3006 RMK A01 T00921083  RH  028%=      5-min Rain = 0
KAM1 172248Z 24005KT 09/M08 A3006 RMK A01 T00921083  RH  028%=      5-min Rain = 0
KAM1 172249Z 24006KT 09/M08 A3006 RMK A01 T00911082  RH  028%=      5-min Rain = 0
KAM1 172250Z 23004KT 09/M08 A3006 RMK A01 T00921082  RH  028%=      5-min Rain = 0
KAM1 172251Z 23002KT 09/M08 A3006 RMK A01 T00921082  RH  028%=      5-min Rain = 0
KAM1 172252Z 21002KT 09/M08 A3006 RMK A01 T00921082  RH  028%=      5-min Rain = 0
KAM1 172253Z 24002KT 09/M08 A3006 RMK A01 T00921082  RH  028%=      5-min Rain = 0
KAM1 172254Z 22003KT 09/M08 A3006 RMK A01 T00931082  RH  028%=      5-min Rain = 0
KAM1 172255Z 23004KT 09/M08 A3006 RMK A01 T00931082  RH  028%=      5-min Rain = 0
KAM1 172256Z 23004KT 09/M08 A3006 RMK A01 T00941082  RH  028%=      5-min Rain = 0
KAM1 172257Z 22005KT 09/M08 A3006 RMK A01 T00931082  RH  028%=      5-min Rain = 0
KAM1 172258Z 23006KT 09/M08 A3006 RMK A01 T00931082  RH  028%=      5-min Rain = 0
KAM1 172259Z 24006KT 09/M08 A3006 RMK A01 T00931082  RH  028%=      5-min Rain = 0
KAM1 172300Z 23005KT 09/M08 A3006 RMK A01 T00921083  RH  028%=      5-min Rain = 0
KAM1 172301Z 21005KT 09/M08 A3006 RMK A01 T00921083  RH  028%=      5-min Rain = 0
KAM1 172302Z 22005KT 09/M08 A3006 RMK A01 T00921083  RH  028%=      5-min Rain = 0
KAM1 172303Z 21004KT 09/M08 A3006 RMK A01 T00921084  RH  028%=      5-min Rain = 0
KAM1 172304Z 22004KT 09/M08 A3006 RMK A01 T00921084  RH  028%=      5-min Rain = 0
KAM1 172305Z 22004KT 09/M08 A3006 RMK A01 T00921084  RH  028%=      5-min Rain = 0
KAM1 172306Z 22005KT 09/M08 A3006 RMK A01 T00921084  RH  028%=      5-min Rain = 0
KAM1 172307Z 22004KT 09/M08 A3006 RMK A01 T00921083  RH  028%=      5-min Rain = 0
KAM1 172308Z 22004KT 09/M08 A3006 RMK A01 T00921084  RH  028%=      5-min Rain = 0
KAM1 172309Z 22006KT 09/M08 A3006 RMK A01 T00921084  RH  028%=      5-min Rain = 0
KAM1 172310Z 21006KT 09/M08 A3006 RMK A01 T00901084  RH  028%=      5-min Rain = 0
KAM1 172311Z 21005KT 09/M09 A3006 RMK A01 T00901085  RH  028%=      5-min Rain = 0
KAM1 172312Z 22005KT 09/M09 A3006 RMK A01 T00891086  RH  028%=      5-min Rain = 0
KAM1 172313Z 22003KT 09/M09 A3006 RMK A01 T00881085  RH  028%=      5-min Rain = 0
KAM1 172314Z 19004KT 09/M09 A3006 RMK A01 T00871086  RH  028%=      5-min Rain = 0
KAM1 172315Z 19004KT 09/M09 A3006 RMK A01 T00871086  RH  029%=      5-min Rain = 0
KAM1 172316Z 19005KT 09/M09 A3006 RMK A01 T00861086  RH  029%=      5-min Rain = 0
KAM1 172317Z 19005KT 09/M09 A3006 RMK A01 T00851086  RH  029%=      5-min Rain = 0
KAM1 172318Z 18005KT 08/M09 A3006 RMK A01 T00841086  RH  029%=      5-min Rain = 0
KAM1 172319Z 19004KT 08/M09 A3006 RMK A01 T00841086  RH  029%=      5-min Rain = 0
KAM1 172320Z 18005KT 08/M09 A3006 RMK A01 T00831086  RH  029%=      5-min Rain = 0
KAM1 172321Z 18005KT 08/M09 A3006 RMK A01 T00821086  RH  029%=      5-min Rain = 0
KAM1 172322Z 19006KT 08/M09 A3006 RMK A01 T00821086  RH  029%=      5-min Rain = 0
KAM1 172323Z 18006KT 08/M09 A3006 RMK A01 T00831086  RH  029%=      5-min Rain = 0
KAM1 172324Z 19004KT 08/M09 A3006 RMK A01 T00831086  RH  029%=      5-min Rain = 0
KAM1 172325Z 19004KT 08/M09 A3006 RMK A01 T00831086  RH  029%=      5-min Rain = 0
KAM1 172326Z 18005KT 08/M09 A3006 RMK A01 T00831086  RH  029%=      5-min Rain = 0
KAM1 172327Z 19005KT 08/M09 A3006 RMK A01 T00831086  RH  029%=      5-min Rain = 0
KAM1 172328Z 19005KT 08/M09 A3006 RMK A01 T00831086  RH  029%=      5-min Rain = 0
KAM1 172329Z 19006KT 08/M09 A3006 RMK A01 T00831086  RH  029%=      5-min Rain = 0
KAM1 172330Z 18006KT 08/M09 A3006 RMK A01 T00821086  RH  029%=      5-min Rain = 0
KAM1 172331Z 19007KT 08/M09 A3006 RMK A01 T00821085  RH  030%=      5-min Rain = 0
KAM1 172332Z 19006KT 08/M09 A3006 RMK A01 T00821085  RH  030%=      5-min Rain = 0
KAM1 172333Z 19005KT 08/M09 A3006 RMK A01 T00811085  RH  030%=      5-min Rain = 0
KAM1 172334Z 19005KT 08/M09 A3006 RMK A01 T00811085  RH  030%=      5-min Rain = 0
KAM1 172335Z 19005KT 08/M09 A3006 RMK A01 T00801086  RH  030%=      5-min Rain = 0
KAM1 172336Z 20005KT 08/M09 A3006 RMK A01 T00781086  RH  030%=      5-min Rain = 0
KAM1 172337Z 20005KT 08/M09 A3006 RMK A01 T00771087  RH  030%=      5-min Rain = 0
KAM1 172338Z 20005KT 08/M09 A3006 RMK A01 T00761087  RH  030%=      5-min Rain = 0
KAM1 172339Z 20005KT 08/M09 A3006 RMK A01 T00751088  RH  031%=      5-min Rain = 0
KAM1 172340Z 20005KT 07/M09 A3006 RMK A01 T00741087  RH  031%=      5-min Rain = 0
KAM1 172341Z 19004KT 07/M09 A3006 RMK A01 T00731087  RH  031%=      5-min Rain = 0
KAM1 172342Z 19004KT 07/M09 A3006 RMK A01 T00721088  RH  031%=      5-min Rain = 0
KAM1 172343Z 19004KT 07/M09 A3006 RMK A01 T00711088  RH  031%=      5-min Rain = 0
KAM1 172344Z 19004KT 07/M09 A3006 RMK A01 T00701088  RH  031%=      5-min Rain = 0
KAM1 172345Z 19004KT 07/M09 A3006 RMK A01 T00691088  RH  031%=      5-min Rain = 0
KAM1 172346Z 19004KT 07/M09 A3006 RMK A01 T00691088  RH  032%=      5-min Rain = 0
KAM1 172347Z 19004KT 07/M09 A3006 RMK A01 T00691088  RH  032%=      5-min Rain = 0
KAM1 172348Z 19004KT 07/M09 A3006 RMK A01 T00681089  RH  032%=      5-min Rain = 0
KAM1 172349Z 19004KT 07/M09 A3006 RMK A01 T00671089  RH  032%=      5-min Rain = 0
KAM1 172350Z 19005KT 07/M09 A3006 RMK A01 T00671088  RH  032%=      5-min Rain = 0
KAM1 172351Z 19005KT 07/M09 A3006 RMK A01 T00681087  RH  032%=      5-min Rain = 0
KAM1 172352Z 18005KT 07/M09 A3006 RMK A01 T00691087  RH  032%=      5-min Rain = 0
KAM1 172353Z 18005KT 07/M09 A3006 RMK A01 T00681088  RH  032%=      5-min Rain = 0
KAM1 172354Z 18005KT 07/M09 A3006 RMK A01 T00661091  RH  032%=      5-min Rain = 0
KAM1 172355Z 18005KT 06/M09 A3006 RMK A01 T00631092  RH  032%=      5-min Rain = 0
KAM1 172356Z 19005KT 06/M09 A3006 RMK A01 T00611092  RH  032%=      5-min Rain = 0
KAM1 172357Z 19005KT 06/M09 A3006 RMK A01 T00601093  RH  033%=      5-min Rain = 0
KAM1 172358Z 19005KT 06/M09 A3006 RMK A01 T00581093  RH  033%=      5-min Rain = 0
KAM1 172359Z 19005KT 06/M09 A3006 RMK A01 T00571093  RH  033%=      5-min Rain = 0
KAM1 180000Z 19005KT 06/M09 A3006 RMK A01 T00561092  RH  033%=      5-min Rain = 0
KAM1 180001Z 19005KT 06/M09 A3006 RMK A01 T00551094  RH  033%=      5-min Rain = 0
KAM1 180002Z 19005KT 05/M09 A3006 RMK A01 T00531094  RH  034%=      5-min Rain = 0
KAM1 180003Z 18005KT 05/M09 A3006 RMK A01 T00521093  RH  034%=      5-min Rain = 0
KAM1 180004Z 19004KT 05/M09 A3006 RMK A01 T00511093  RH  034%=      5-min Rain = 0
KAM1 180005Z 19004KT 05/M09 A3006 RMK A01 T00501093  RH  035%=      5-min Rain = 0
KAM1 180006Z 19005KT 05/M09 A3006 RMK A01 T00501092  RH  035%=      5-min Rain = 0
KAM1 180007Z 19005KT 05/M09 A3006 RMK A01 T00501093  RH  035%=      5-min Rain = 0
KAM1 180008Z 19005KT 05/M10 A3006 RMK A01 T00481095  RH  035%=      5-min Rain = 0
KAM1 180009Z 19005KT 05/M10 A3005 RMK A01 T00461095  RH  035%=      5-min Rain = 0
KAM1 180010Z 19005KT 05/M09 A3005 RMK A01 T00461093  RH  036%=      5-min Rain = 0
KAM1 180011Z 19005KT 05/M09 A3005 RMK A01 T00461093  RH  036%=      5-min Rain = 0
KAM1 180012Z 19005KT 05/M09 A3006 RMK A01 T00451094  RH  036%=      5-min Rain = 0
KAM1 180013Z 19004KT 04/M09 A3006 RMK A01 T00441093  RH  036%=      5-min Rain = 0
KAM1 180014Z 19004KT 04/M09 A3006 RMK A01 T00441093  RH  036%=      5-min Rain = 0
KAM1 180015Z 19004KT 04/M09 A3006 RMK A01 T00431093  RH  036%=      5-min Rain = 0
KAM1 180016Z 19004KT 04/M09 A3006 RMK A01 T00431091  RH  037%=      5-min Rain = 0
KAM1 180017Z 19004KT 05/M09 A3006 RMK A01 T00451088  RH  037%=      5-min Rain = 0
KAM1 180018Z 19004KT 05/M09 A3006 RMK A01 T00471088  RH  037%=      5-min Rain = 0
KAM1 180019Z 19004KT 05/M09 A3006 RMK A01 T00471089  RH  037%=      5-min Rain = 0
KAM1 180020Z 19004KT 05/M09 A3006 RMK A01 T00471089  RH  037%=      5-min Rain = 0
KAM1 180021Z 18004KT 05/M09 A3006 RMK A01 T00471089  RH  037%=      5-min Rain = 0
KAM1 180022Z 18004KT 05/M09 A3006 RMK A01 T00481087  RH  037%=      5-min Rain = 0
KAM1 180023Z 18004KT 05/M09 A3006 RMK A01 T00491086  RH  037%=      5-min Rain = 0
KAM1 180024Z 19005KT 05/M09 A3006 RMK A01 T00501085  RH  037%=      5-min Rain = 0
KAM1 180025Z 19005KT 05/M08 A3006 RMK A01 T00511084  RH  037%=      5-min Rain = 0
KAM1 180026Z 19005KT 05/M08 A3006 RMK A01 T00521084  RH  037%=      5-min Rain = 0
KAM1 180027Z 19004KT 05/M08 A3006 RMK A01 T00531084  RH  037%=      5-min Rain = 0
KAM1 180028Z 19004KT 05/M08 A3006 RMK A01 T00531084  RH  036%=      5-min Rain = 0
KAM1 180029Z 19004KT 05/M08 A3006 RMK A01 T00541084  RH  036%=      5-min Rain = 0
KAM1 180030Z 19004KT 05/M08 A3006 RMK A01 T00541084  RH  036%=      5-min Rain = 0
KAM1 180031Z 19004KT 05/M08 A3006 RMK A01 T00531084  RH  036%=      5-min Rain = 0
KAM1 180032Z 19004KT 05/M09 A3006 RMK A01 T00521085  RH  036%=      5-min Rain = 0
KAM1 180033Z 19004KT 05/M08 A3006 RMK A01 T00521084  RH  037%=      5-min Rain = 0
KAM1 180034Z 18004KT 05/M08 A3006 RMK A01 T00511084  RH  037%=      5-min Rain = 0
KAM1 180035Z 18004KT 05/M08 A3006 RMK A01 T00511084  RH  037%=      5-min Rain = 0
KAM1 180036Z 18004KT 05/M08 A3006 RMK A01 T00511083  RH  037%=      5-min Rain = 0
KAM1 180037Z 18005KT 05/M08 A3006 RMK A01 T00511084  RH  037%=      5-min Rain = 0
KAM1 180038Z 18005KT 05/M08 A3006 RMK A01 T00511083  RH  037%=      5-min Rain = 0
KAM1 180039Z 18005KT 05/M08 A3006 RMK A01 T00511083  RH  037%=      5-min Rain = 0
KAM1 180040Z 18005KT 05/M09 A3006 RMK A01 T00501085  RH  037%=      5-min Rain = 0
KAM1 180041Z 18005KT 05/M09 A3006 RMK A01 T00481086  RH  037%=      5-min Rain = 0
KAM1 180042Z 18005KT 05/M09 A3006 RMK A01 T00461088  RH  037%=      5-min Rain = 0
KAM1 180043Z 18005KT 04/M09 A3006 RMK A01 T00441088  RH  038%=      5-min Rain = 0
KAM1 180044Z 19005KT 04/M09 A3006 RMK A01 T00431088  RH  038%=      5-min Rain = 0
KAM1 180045Z 19005KT 04/M09 A3006 RMK A01 T00421088  RH  038%=      5-min Rain = 0
KAM1 180046Z 18006KT 04/M09 A3006 RMK A01 T00421088  RH  038%=      5-min Rain = 0
KAM1 180047Z 19006KT 04/M09 A3006 RMK A01 T00401089  RH  038%=      5-min Rain = 0
KAM1 180048Z 19006KT 04/M09 A3006 RMK A01 T00391090  RH  038%=      5-min Rain = 0
KAM1 180049Z 19006KT 04/M09 A3006 RMK A01 T00381090  RH  039%=      5-min Rain = 0
KAM1 180050Z 19006KT 04/M09 A3006 RMK A01 T00371090  RH  039%=      5-min Rain = 0
KAM1 180051Z 19006KT 04/M09 A3006 RMK A01 T00351091  RH  039%=      5-min Rain = 0
KAM1 180052Z 19006KT 03/M09 A3006 RMK A01 T00331091  RH  040%=      5-min Rain = 0
KAM1 180053Z 19006KT 03/M09 A3006 RMK A01 T00321091  RH  040%=      5-min Rain = 0
KAM1 180054Z 19007KT 03/M09 A3006 RMK A01 T00311091  RH  040%=      5-min Rain = 0
KAM1 180055Z 19006KT 03/M09 A3005 RMK A01 T00301092  RH  040%=      5-min Rain = 0
KAM1 180056Z 19006KT 03/M09 A3005 RMK A01 T00271094  RH  040%=      5-min Rain = 0
KAM1 180057Z 19006KT 02/M10 A3005 RMK A01 T00241096  RH  041%=      5-min Rain = 0
KAM1 180058Z 19006KT 02/M10 A3005 RMK A01 T00211097  RH  041%=      5-min Rain = 0
KAM1 180059Z 19007KT 02/M10 A3005 RMK A01 T00191097  RH  042%=      5-min Rain = 0
KAM1 180100Z 19007KT 02/M10 A3005 RMK A01 T00181096  RH  043%=      5-min Rain = 0
KAM1 180101Z 19007KT 02/M10 A3005 RMK A01 T00171096  RH  043%=      5-min Rain = 0
KAM1 180102Z 19007KT 02/M10 A3005 RMK A01 T00161095  RH  043%=      5-min Rain = 0
KAM1 180103Z 19007KT 02/M10 A3005 RMK A01 T00161095  RH  044%=      5-min Rain = 0
KAM1 180104Z 19007KT 02/M09 A3005 RMK A01 T00161094  RH  044%=      5-min Rain = 0
KAM1 180105Z 19007KT 02/M09 A3005 RMK A01 T00161094  RH  044%=      5-min Rain = 0
KAM1 180106Z 19008KT 02/M09 A3005 RMK A01 T00151094  RH  044%=      5-min Rain = 0
KAM1 180107Z 19008KT 02/M09 A3005 RMK A01 T00161093  RH  044%=      5-min Rain = 0
KAM1 180108Z 19008KT 02/M10 A3005 RMK A01 T00151095  RH  044%=      5-min Rain = 0
KAM1 180109Z 19008KT 01/M10 A3005 RMK A01 T00141095  RH  044%=      5-min Rain = 0
KAM1 180110Z 19008KT 01/M10 A3005 RMK A01 T00131095  RH  044%=      5-min Rain = 0
KAM1 180111Z 19008KT 01/M10 A3005 RMK A01 T00121095  RH  045%=      5-min Rain = 0
KAM1 180112Z 19008KT 01/M10 A3005 RMK A01 T00111095  RH  045%=      5-min Rain = 0
KAM1 180113Z 19008KT 01/M10 A3005 RMK A01 T00101095  RH  045%=      5-min Rain = 0
KAM1 180114Z 19008KT 01/M10 A3005 RMK A01 T00101095  RH  046%=      5-min Rain = 0
KAM1 180115Z 19008KT 01/M10 A3005 RMK A01 T00091095  RH  046%=      5-min Rain = 0
KAM1 180116Z 19008KT 01/M09 A3005 RMK A01 T00081094  RH  046%=      5-min Rain = 0
KAM1 180117Z 19008KT 01/M09 A3005 RMK A01 T00081093  RH  046%=      5-min Rain = 0
KAM1 180118Z 19008KT 01/M09 A3005 RMK A01 T00081093  RH  047%=      5-min Rain = 0
KAM1 180119Z 19007KT 01/M09 A3005 RMK A01 T00081093  RH  047%=      5-min Rain = 0
KAM1 180120Z 19007KT 01/M09 A3005 RMK A01 T00081092  RH  047%=      5-min Rain = 0
KAM1 180121Z 19007KT 01/M09 A3005 RMK A01 T00081092  RH  047%=      5-min Rain = 0
KAM1 180122Z 19007KT 01/M09 A3005 RMK A01 T00091091  RH  047%=      5-min Rain = 0
KAM1 180123Z 19007KT 01/M09 A3005 RMK A01 T00091090  RH  047%=      5-min Rain = 0
KAM1 180124Z 19008KT 01/M09 A3005 RMK A01 T00101089  RH  047%=      5-min Rain = 0
KAM1 180125Z 19007KT 01/M09 A3005 RMK A01 T00101089  RH  048%=      5-min Rain = 0
KAM1 180126Z 20007KT 01/M09 A3005 RMK A01 T00111088  RH  048%=      5-min Rain = 0
KAM1 180127Z 20007KT 01/M09 A3005 RMK A01 T00111088  RH  048%=      5-min Rain = 0
KAM1 180128Z 20008KT 01/M09 A3005 RMK A01 T00101087  RH  048%=      5-min Rain = 0
KAM1 180129Z 20007KT 01/M09 A3005 RMK A01 T00101087  RH  048%=      5-min Rain = 0
KAM1 180130Z 20008KT 01/M09 A3005 RMK A01 T00101086  RH  049%=      5-min Rain = 0
KAM1 180131Z 20008KT 01/M09 A3005 RMK A01 T00101086  RH  049%=      5-min Rain = 0
KAM1 180132Z 20007KT 01/M09 A3005 RMK A01 T00101085  RH  049%=      5-min Rain = 0
KAM1 180133Z 20007KT 01/M09 A3005 RMK A01 T00111085  RH  049%=      5-min Rain = 0
KAM1 180134Z 20007KT 01/M08 A3004 RMK A01 T00121084  RH  049%=      5-min Rain = 0
KAM1 180135Z 20007KT 01/M08 A3004 RMK A01 T00121084  RH  049%=      5-min Rain = 0
KAM1 180136Z 20007KT 01/M08 A3004 RMK A01 T00121083  RH  049%=      5-min Rain = 0
KAM1 180137Z 20007KT 01/M08 A3004 RMK A01 T00121084  RH  049%=      5-min Rain = 0
KAM1 180138Z 20007KT 01/M08 A3004 RMK A01 T00121084  RH  049%=      5-min Rain = 0
KAM1 180139Z 20007KT 01/M08 A3004 RMK A01 T00121084  RH  049%=      5-min Rain = 0
KAM1 180140Z 20007KT 01/M08 A3004 RMK A01 T00121083  RH  049%=      5-min Rain = 0
KAM1 180141Z 20007KT 01/M08 A3004 RMK A01 T00131083  RH  049%=      5-min Rain = 0
KAM1 180142Z 20007KT 01/M08 A3004 RMK A01 T00121084  RH  049%=      5-min Rain = 0
KAM1 180143Z 20007KT 01/M08 A3004 RMK A01 T00121084  RH  049%=      5-min Rain = 0
KAM1 180144Z 21007KT 01/M09 A3004 RMK A01 T00111085  RH  049%=      5-min Rain = 0
KAM1 180145Z 21007KT 01/M08 A3004 RMK A01 T00101084  RH  049%=      5-min Rain = 0
KAM1 180146Z 21007KT 01/M08 A3004 RMK A01 T00091084  RH  050%=      5-min Rain = 0
KAM1 180147Z 21007KT 01/M08 A3004 RMK A01 T00091083  RH  050%=      5-min Rain = 0
KAM1 180148Z 21007KT 01/M08 A3005 RMK A01 T00091082  RH  051%=      5-min Rain = 0
KAM1 180149Z 21007KT 01/M08 A3005 RMK A01 T00091082  RH  051%=      5-min Rain = 0
KAM1 180150Z 21008KT 01/M08 A3005 RMK A01 T00081082  RH  051%=      5-min Rain = 0
KAM1 180151Z 21008KT 01/M08 A3005 RMK A01 T00081081  RH  051%=      5-min Rain = 0
KAM1 180152Z 21008KT 01/M08 A3005 RMK A01 T00081080  RH  052%=      5-min Rain = 0
KAM1 180153Z 21008KT 01/M08 A3004 RMK A01 T00081080  RH  052%=      5-min Rain = 0
KAM1 180154Z 21007KT 01/M08 A3004 RMK A01 T00091079  RH  052%=      5-min Rain = 0
KAM1 180155Z 21007KT 01/M08 A3004 RMK A01 T00091078  RH  052%=      5-min Rain = 0
KAM1 180156Z 21008KT 01/M08 A3004 RMK A01 T00091078  RH  052%=      5-min Rain = 0
KAM1 180157Z 21008KT 01/M08 A3004 RMK A01 T00091078  RH  052%=      5-min Rain = 0
KAM1 180158Z 21008KT 01/M08 A3004 RMK A01 T00091078  RH  052%=      5-min Rain = 0
KAM1 180159Z 21008KT 01/M08 A3004 RMK A01 T00091078  RH  052%=      5-min Rain = 0
KAM1 180200Z 22008KT 01/M08 A3004 RMK A01 T00081078  RH  052%=      5-min Rain = 0
KAM1 180201Z 21008KT 01/M08 A3004 RMK A01 T00081078  RH  052%=      5-min Rain = 0
KAM1 180202Z 21008KT 01/M08 A3004 RMK A01 T00081078  RH  053%=      5-min Rain = 0
KAM1 180203Z 21008KT 01/M08 A3004 RMK A01 T00091077  RH  053%=      5-min Rain = 0
KAM1 180204Z 21008KT 01/M08 A3004 RMK A01 T00091077  RH  053%=      5-min Rain = 0
KAM1 180205Z 21009KT 01/M08 A3004 RMK A01 T00101075  RH  053%=      5-min Rain = 0
KAM1 180206Z 21009KT 01/M08 A3004 RMK A01 T00111075  RH  053%=      5-min Rain = 0
KAM1 180207Z 21009KT 01/M08 A3004 RMK A01 T00111075  RH  053%=      5-min Rain = 0
KAM1 180208Z 21008KT 01/M08 A3004 RMK A01 T00121075  RH  053%=      5-min Rain = 0
KAM1 180209Z 21008KT 01/M08 A3004 RMK A01 T00121075  RH  053%=      5-min Rain = 0
KAM1 180210Z 21008KT 01/M08 A3004 RMK A01 T00121075  RH  053%=      5-min Rain = 0
KAM1 180211Z 21008KT 01/M08 A3004 RMK A01 T00111075  RH  053%=      5-min Rain = 0
KAM1 180212Z 21008KT 01/M08 A3004 RMK A01 T00111075  RH  053%=      5-min Rain = 0
KAM1 180213Z 21007KT 01/M08 A3004 RMK A01 T00111075  RH  053%=      5-min Rain = 0
KAM1 180214Z 21007KT 01/M08 A3004 RMK A01 T00111075  RH  053%=      5-min Rain = 0
KAM1 180215Z 21007KT 01/M08 A3004 RMK A01 T00101076  RH  053%=      5-min Rain = 0
KAM1 180216Z 21007KT 01/M08 A3004 RMK A01 T00091076  RH  053%=      5-min Rain = 0
KAM1 180217Z 21008KT 01/M08 A3004 RMK A01 T00081076  RH  053%=      5-min Rain = 0
KAM1 180218Z 21008KT 01/M08 A3004 RMK A01 T00081076  RH  053%=      5-min Rain = 0
KAM1 180219Z 21008KT 01/M08 A3004 RMK A01 T00071076  RH  053%=      5-min Rain = 0
KAM1 180220Z 20008KT 01/M08 A3004 RMK A01 T00071077  RH  054%=      5-min Rain = 0
KAM1 180221Z 20008KT 01/M08 A3004 RMK A01 T00061077  RH  054%=      5-min Rain = 0
KAM1 180222Z 21008KT 01/M08 A3004 RMK A01 T00051077  RH  054%=      5-min Rain = 0
KAM1 180223Z 21008KT 01/M08 A3004 RMK A01 T00051077  RH  054%=      5-min Rain = 0
KAM1 180224Z 21009KT 00/M08 A3004 RMK A01 T00041076  RH  055%=      5-min Rain = 0
KAM1 180225Z 21009KT 01/M08 A3004 RMK A01 T00051075  RH  055%=      5-min Rain = 0
KAM1 180226Z 21009KT 01/M08 A3004 RMK A01 T00051075  RH  055%=      5-min Rain = 0
KAM1 180227Z 21009KT 01/M07 A3004 RMK A01 T00061074  RH  055%=      5-min Rain = 0
KAM1 180228Z 21009KT 01/M07 A3004 RMK A01 T00071074  RH  055%=      5-min Rain = 0
KAM1 180229Z 21009KT 01/M07 A3004 RMK A01 T00071074  RH  055%=      5-min Rain = 0
KAM1 180230Z 21009KT 01/M07 A3004 RMK A01 T00071074  RH  055%=      5-min Rain = 0
KAM1 180231Z 21009KT 01/M07 A3004 RMK A01 T00081073  RH  055%=      5-min Rain = 0
KAM1 180232Z 21009KT 01/M07 A3004 RMK A01 T00081073  RH  055%=      5-min Rain = 0
KAM1 180233Z 21009KT 01/M07 A3004 RMK A01 T00091072  RH  055%=      5-min Rain = 0
KAM1 180234Z 21009KT 01/M07 A3004 RMK A01 T00101071  RH  054%=      5-min Rain = 0
KAM1 180235Z 21009KT 01/M07 A3004 RMK A01 T00111071  RH  054%=      5-min Rain = 0
KAM1 180236Z 21009KT 01/M07 A3003 RMK A01 T00111071  RH  054%=      5-min Rain = 0
KAM1 180237Z 21008KT 01/M07 A3003 RMK A01 T00121071  RH  054%=      5-min Rain = 0
KAM1 180238Z 21009KT 01/M07 A3003 RMK A01 T00121071  RH  054%=      5-min Rain = 0
KAM1 180239Z 21009KT 01/M07 A3003 RMK A01 T00131070  RH  054%=      5-min Rain = 0
KAM1 180240Z 21009KT 01/M07 A3003 RMK A01 T00131071  RH  054%=      5-min Rain = 0
KAM1 180241Z 21009KT 01/M07 A3003 RMK A01 T00131071  RH  054%=      5-min Rain = 0
KAM1 180242Z 21009KT 01/M07 A3003 RMK A01 T00121072  RH  054%=      5-min Rain = 0
KAM1 180243Z 21009KT 01/M07 A3003 RMK A01 T00111072  RH  054%=      5-min Rain = 0
KAM1 180244Z 21009KT 01/M07 A3003 RMK A01 T00111072  RH  054%=      5-min Rain = 0
KAM1 180245Z 21009KT 01/M07 A3003 RMK A01 T00101072  RH  054%=      5-min Rain = 0
KAM1 180246Z 21009KT 01/M07 A3003 RMK A01 T00091073  RH  054%=      5-min Rain = 0
KAM1 180247Z 20009KT 01/M07 A3003 RMK A01 T00091072  RH  055%=      5-min Rain = 0
KAM1 180248Z 20009KT 01/M07 A3002 RMK A01 T00091072  RH  055%=      5-min Rain = 0
KAM1 180249Z 20009KT 01/M07 A3002 RMK A01 T00091072  RH  055%=      5-min Rain = 0
KAM1 180250Z 20008KT 01/M07 A3002 RMK A01 T00091072  RH  055%=      5-min Rain = 0
KAM1 180251Z 20008KT 01/M07 A3002 RMK A01 T00091072  RH  055%=      5-min Rain = 0
KAM1 180252Z 20008KT 01/M07 A3002 RMK A01 T00081073  RH  055%=      5-min Rain = 0
KAM1 180253Z 20008KT 01/M07 A3002 RMK A01 T00081073  RH  055%=      5-min Rain = 0
KAM1 180254Z 20008KT 01/M07 A3002 RMK A01 T00071073  RH  055%=      5-min Rain = 0
KAM1 180255Z 20009KT 01/M07 A3002 RMK A01 T00071072  RH  055%=      5-min Rain = 0
KAM1 180256Z 20009KT 01/M07 A3002 RMK A01 T00071072  RH  055%=      5-min Rain = 0
KAM1 180257Z 20009KT 01/M07 A3002 RMK A01 T00081071  RH  055%=      5-min Rain = 0
KAM1 180258Z 20010KT 01/M07 A3002 RMK A01 T00091070  RH  055%=      5-min Rain = 0
KAM1 180259Z 21009KT 01/M07 A3002 RMK A01 T00101070  RH  055%=      5-min Rain = 0
KAM1 180300Z 21008KT 01/M07 A3002 RMK A01 T00111069  RH  055%=      5-min Rain = 0
KAM1 180301Z 21008KT 01/M07 A3002 RMK A01 T00121069  RH  055%=      5-min Rain = 0
KAM1 180302Z 21009KT 01/M07 A3002 RMK A01 T00121069  RH  055%=      5-min Rain = 0
KAM1 180303Z 21009KT 01/M07 A3002 RMK A01 T00131069  RH  054%=      5-min Rain = 0
KAM1 180304Z 21010KT 01/M07 A3002 RMK A01 T00131069  RH  054%=      5-min Rain = 0
KAM1 180305Z 21010KT 01/M07 A3002 RMK A01 T00141069  RH  054%=      5-min Rain = 0
KAM1 180306Z 21009KT 02/M07 A3002 RMK A01 T00151068  RH  054%=      5-min Rain = 0
KAM1 180307Z 21010KT 02/M07 A3002 RMK A01 T00151068  RH  054%=      5-min Rain = 0
KAM1 180308Z 21010KT 02/M07 A3002 RMK A01 T00151069  RH  054%=      5-min Rain = 0
KAM1 180309Z 21010KT 02/M07 A3002 RMK A01 T00151069  RH  054%=      5-min Rain = 0
KAM1 180310Z 21010KT 01/M07 A3002 RMK A01 T00141070  RH  054%=      5-min Rain = 0
KAM1 180311Z 21010KT 01/M07 A3002 RMK A01 T00131070  RH  054%=      5-min Rain = 0
KAM1 180312Z 21009KT 01/M07 A3002 RMK A01 T00121070  RH  054%=      5-min Rain = 0
KAM1 180313Z 21010KT 01/M07 A3002 RMK A01 T00111071  RH  054%=      5-min Rain = 0
KAM1 180314Z 21010KT 01/M07 A3002 RMK A01 T00111070  RH  055%=      5-min Rain = 0
KAM1 180315Z 21010KT 01/M07 A3002 RMK A01 T00111070  RH  055%=      5-min Rain = 0
KAM1 180316Z 21010KT 01/M07 A3001 RMK A01 T00101070  RH  055%=      5-min Rain = 0
KAM1 180317Z 21010KT 01/M07 A3001 RMK A01 T00111070  RH  055%=      5-min Rain = 0
KAM1 180318Z 21010KT 01/M07 A3001 RMK A01 T00111070  RH  055%=      5-min Rain = 0
KAM1 180319Z 21010KT 01/M07 A3001 RMK A01 T00111070  RH  055%=      5-min Rain = 0
KAM1 180320Z 21011KT 01/M07 A3001 RMK A01 T00111070  RH  055%=      5-min Rain = 0
KAM1 180321Z 21011KT 01/M07 A3001 RMK A01 T00121069  RH  055%=      5-min Rain = 0
KAM1 180322Z 21011KT 01/M07 A3001 RMK A01 T00121069  RH  055%=      5-min Rain = 0
KAM1 180323Z 21011KT 01/M07 A3001 RMK A01 T00121069  RH  055%=      5-min Rain = 0
KAM1 180324Z 21010KT 01/M07 A3001 RMK A01 T00131069  RH  055%=      5-min Rain = 0
KAM1 180325Z 20011KT 01/M07 A3001 RMK A01 T00131069  RH  055%=      5-min Rain = 0
KAM1 180326Z 20011KT 01/M07 A3001 RMK A01 T00131069  RH  054%=      5-min Rain = 0
KAM1 180327Z 20011KT 01/M07 A3001 RMK A01 T00141069  RH  054%=      5-min Rain = 0
KAM1 180328Z 21011KT 01/M07 A3001 RMK A01 T00141069  RH  054%=      5-min Rain = 0
KAM1 180329Z 21011KT 01/M07 A3001 RMK A01 T00141069  RH  054%=      5-min Rain = 0
KAM1 180330Z 21011KT 01/M07 A3001 RMK A01 T00141069  RH  054%=      5-min Rain = 0
KAM1 180331Z 21011KT 01/M07 A30 RMK A01 T00141069  RH  054%=      5-min Rain = 0
KAM1 180332Z 20012KT 01/M07 A30 RMK A01 T00141069  RH  054%=      5-min Rain = 0
KAM1 180333Z 21011KT 01/M07 A30 RMK A01 T00141069  RH  054%=      5-min Rain = 0
KAM1 180334Z 20011KT 01/M07 A30 RMK A01 T00141069  RH  054%=      5-min Rain = 0
KAM1 180335Z 21011KT 01/M07 A30 RMK A01 T00141069  RH  054%=      5-min Rain = 0
KAM1 180336Z 21013KT 02/M07 A30 RMK A01 T00151069  RH  054%=      5-min Rain = 0
KAM1 180337Z 21012KT 02/M07 A30 RMK A01 T00151069  RH  054%=      5-min Rain = 0
KAM1 180338Z 21012KT 02/M07 A30 RMK A01 T00151069  RH  054%=      5-min Rain = 0
KAM1 180339Z 21012KT 02/M07 A30 RMK A01 T00151069  RH  054%=      5-min Rain = 0
KAM1 180340Z 21011KT 02/M07 A30 RMK A01 T00151069  RH  054%=      5-min Rain = 0
KAM1 180341Z 21012KT 02/M07 A30 RMK A01 T00151069  RH  054%=      5-min Rain = 0
KAM1 180342Z 21012KT 01/M07 A30 RMK A01 T00141069  RH  054%=      5-min Rain = 0
KAM1 180343Z 21012KT 01/M07 A30 RMK A01 T00141069  RH  054%=      5-min Rain = 0
KAM1 180344Z 21012KT 02/M07 A30 RMK A01 T00151068  RH  054%=      5-min Rain = 0
KAM1 180345Z 21013KT 02/M07 A30 RMK A01 T00151068  RH  054%=      5-min Rain = 0
KAM1 180346Z 20013KT 02/M07 A30 RMK A01 T00161068  RH  054%=      5-min Rain = 0
KAM1 180347Z 21013KT 02/M07 A30 RMK A01 T00161067  RH  054%=      5-min Rain = 0
KAM1 180348Z 21013KT 02/M07 A30 RMK A01 T00171066  RH  054%=      5-min Rain = 0
KAM1 180349Z 21012KT 02/M07 A30 RMK A01 T00171066  RH  054%=      5-min Rain = 0
KAM1 180350Z 21013KT 02/M07 A30 RMK A01 T00171066  RH  054%=      5-min Rain = 0
KAM1 180351Z 21012KT 02/M07 A30 RMK A01 T00171066  RH  054%=      5-min Rain = 0
KAM1 180352Z 21013KT 02/M07 A30 RMK A01 T00181066  RH  054%=      5-min Rain = 0
KAM1 180353Z 21012KT 02/M07 A30 RMK A01 T00181065  RH  054%=      5-min Rain = 0
KAM1 180354Z 20013KT 02/M07 A30 RMK A01 T00191065  RH  054%=      5-min Rain = 0
KAM1 180355Z 20012KT 02/M07 A30 RMK A01 T00201065  RH  053%=      5-min Rain = 0
KAM1 180356Z 21012KT 02/M07 A30 RMK A01 T00211065  RH  053%=      5-min Rain = 0
KAM1 180357Z 21013KT 02/M07 A30 RMK A01 T00201065  RH  053%=      5-min Rain = 0
KAM1 180358Z 21013KT 02/M07 A2999 RMK A01 T00191065  RH  053%=      5-min Rain = 0
KAM1 180359Z 21012KT 02/M07 A30 RMK A01 T00191065  RH  054%=      5-min Rain = 0
KAM1 180400Z 21012KT 02/M07 A30 RMK A01 T00191065  RH  054%=      5-min Rain = 0
KAM1 180401Z 21012KT 02/M07 A30 RMK A01 T00201065  RH  054%=      5-min Rain = 0
KAM1 180402Z 21011KT 02/M07 A30 RMK A01 T00191066  RH  054%=      5-min Rain = 0
KAM1 180403Z 21012KT 02/M07 A2999 RMK A01 T00171066  RH  054%=      5-min Rain = 0
KAM1 180404Z 21011KT 02/M07 A2999 RMK A01 T00171066  RH  054%=      5-min Rain = 0
KAM1 180405Z 21012KT 02/M07 A2999 RMK A01 T00161066  RH  054%=      5-min Rain = 0
KAM1 180406Z 21012KT 02/M07 A2999 RMK A01 T00161066  RH  055%=      5-min Rain = 0
KAM1 180407Z 21012KT 02/M07 A2999 RMK A01 T00161066  RH  055%=      5-min Rain = 0
KAM1 180408Z 21012KT 02/M07 A2999 RMK A01 T00161066  RH  055%=      5-min Rain = 0
KAM1 180409Z 21012KT 02/M07 A2999 RMK A01 T00161066  RH  055%=      5-min Rain = 0
KAM1 180410Z 21011KT 02/M07 A2999 RMK A01 T00161066  RH  055%=      5-min Rain = 0
KAM1 180411Z 21012KT 02/M07 A2999 RMK A01 T00151066  RH  055%=      5-min Rain = 0
KAM1 180412Z 21011KT 02/M07 A2999 RMK A01 T00151065  RH  055%=      5-min Rain = 0
KAM1 180413Z 21011KT 01/M07 A2999 RMK A01 T00131067  RH  055%=      5-min Rain = 0
KAM1 180414Z 21010KT 01/M07 A2999 RMK A01 T00131067  RH  055%=      5-min Rain = 0
KAM1 180415Z 21011KT 01/M07 A2999 RMK A01 T00111067  RH  056%=      5-min Rain = 0
KAM1 180416Z 21010KT 01/M07 A2999 RMK A01 T00101067  RH  056%=      5-min Rain = 0
KAM1 180417Z 21010KT 01/M07 A2999 RMK A01 T00101067  RH  056%=      5-min Rain = 0
KAM1 180418Z 20010KT 01/M07 A2999 RMK A01 T00091067  RH  057%=      5-min Rain = 0
KAM1 180419Z 21009KT 01/M07 A2999 RMK A01 T00081067  RH  057%=      5-min Rain = 0
KAM1 180420Z 20009KT 01/M07 A2999 RMK A01 T00071068  RH  057%=      5-min Rain = 0
KAM1 180421Z 20009KT 01/M07 A2999 RMK A01 T00071068  RH  057%=      5-min Rain = 0
KAM1 180422Z 21009KT 01/M07 A2999 RMK A01 T00061068  RH  058%=      5-min Rain = 0
KAM1 180423Z 21009KT 01/M07 A2999 RMK A01 T00051068  RH  058%=      5-min Rain = 0
KAM1 180424Z 20009KT 00/M07 A2999 RMK A01 T00041068  RH  058%=      5-min Rain = 0
KAM1 180425Z 20009KT 00/M07 A2999 RMK A01 T00041067  RH  059%=      5-min Rain = 0
KAM1 180426Z 20009KT 00/M07 A2998 RMK A01 T00041067  RH  059%=      5-min Rain = 0
KAM1 180427Z 20009KT 00/M07 A2998 RMK A01 T00041067  RH  059%=      5-min Rain = 0
KAM1 180428Z 20009KT 00/M07 A2998 RMK A01 T00041066  RH  059%=      5-min Rain = 0
KAM1 180429Z 20009KT 01/M07 A2998 RMK A01 T00051066  RH  059%=      5-min Rain = 0
KAM1 180430Z 20009KT 01/M07 A2998 RMK A01 T00051066  RH  059%=      5-min Rain = 0
KAM1 180431Z 20009KT 01/M07 A2998 RMK A01 T00051066  RH  059%=      5-min Rain = 0
KAM1 180432Z 20009KT 00/M07 A2998 RMK A01 T00041066  RH  059%=      5-min Rain = 0
KAM1 180433Z 20009KT 00/M07 A2998 RMK A01 T00041066  RH  059%=      5-min Rain = 0
KAM1 180434Z 20009KT 00/M07 A2998 RMK A01 T00031066  RH  059%=      5-min Rain = 0
KAM1 180435Z 21009KT 00/M07 A2998 RMK A01 T00041066  RH  060%=      5-min Rain = 0
KAM1 180436Z 21009KT 00/M07 A2998 RMK A01 T00031066  RH  060%=      5-min Rain = 0
KAM1 180437Z 20009KT 00/M07 A2998 RMK A01 T00041065  RH  060%=      5-min Rain = 0
KAM1 180438Z 20009KT 00/M07 A2998 RMK A01 T00041065  RH  060%=      5-min Rain = 0
KAM1 180439Z 21008KT 00/M07 A2998 RMK A01 T00041065  RH  060%=      5-min Rain = 0
KAM1 180440Z 20008KT 00/M07 A2998 RMK A01 T00041065  RH  060%=      5-min Rain = 0
KAM1 180441Z 21009KT 00/M07 A2998 RMK A01 T00041065  RH  060%=      5-min Rain = 0
KAM1 180442Z 21008KT 00/M07 A2998 RMK A01 T00031065  RH  060%=      5-min Rain = 0
KAM1 180443Z 20008KT 00/M07 A2998 RMK A01 T00031065  RH  060%=      5-min Rain = 0
KAM1 180444Z 21007KT 00/M07 A2998 RMK A01 T00031065  RH  060%=      5-min Rain = 0
KAM1 180445Z 21008KT 00/M07 A2998 RMK A01 T00031065  RH  060%=      5-min Rain = 0
KAM1 180446Z 21008KT 00/M07 A2998 RMK A01 T00021066  RH  060%=      5-min Rain = 0
KAM1 180447Z 21008KT 00/M07 A2998 RMK A01 T00011066  RH  061%=      5-min Rain = 0
KAM1 180448Z 21008KT 00/M07 A2998 RMK A01 T00011066  RH  061%=      5-min Rain = 0
KAM1 180449Z 21008KT 00/07 A2998 RMK A01 T00000-66  RH  061%=      5-min Rain = 0
KAM1 180450Z 21008KT 00/07 A2998 RMK A01 T00-00-66  RH  061%=      5-min Rain = 0
KAM1 180451Z 21008KT M00/M07 A2998 RMK A01 T10011066  RH  061%=      5-min Rain = 0
KAM1 180452Z 21008KT M00/M07 A2998 RMK A01 T10011065  RH  062%=      5-min Rain = 0
KAM1 180453Z 21008KT M00/M07 A2998 RMK A01 T10011065  RH  062%=      5-min Rain = 0
KAM1 180454Z 21008KT M00/M07 A2998 RMK A01 T10011065  RH  062%=      5-min Rain = 0
KAM1 180455Z 21009KT M00/M07 A2998 RMK A01 T10011065  RH  062%=      5-min Rain = 0
KAM1 180456Z 20009KT M00/M07 A2998 RMK A01 T10011065  RH  062%=      5-min Rain = 0
KAM1 180457Z 21008KT M00/M07 A2998 RMK A01 T10011065  RH  062%=      5-min Rain = 0
KAM1 180458Z 21008KT M00/M07 A2998 RMK A01 T10021065  RH  062%=      5-min Rain = 0
KAM1 180459Z 21008KT M00/M07 A2998 RMK A01 T10021065  RH  062%=      5-min Rain = 0
KAM1 180500Z 21008KT M00/M07 A2998 RMK A01 T10021065  RH  062%=      5-min Rain = 0
KAM1 180501Z 21008KT M00/M07 A2997 RMK A01 T10031066  RH  062%=      5-min Rain = 0
KAM1 180502Z 21007KT M00/M07 A2997 RMK A01 T10041066  RH  063%=      5-min Rain = 0
KAM1 180503Z 21008KT M00/M07 A2997 RMK A01 T10041066  RH  063%=      5-min Rain = 0
KAM1 180504Z 21008KT M01/M07 A2997 RMK A01 T10051066  RH  063%=      5-min Rain = 0
KAM1 180505Z 21008KT M01/M07 A2997 RMK A01 T10051066  RH  063%=      5-min Rain = 0
KAM1 180506Z 21008KT M01/M07 A2997 RMK A01 T10061066  RH  064%=      5-min Rain = 0
KAM1 180507Z 21008KT M01/M07 A2997 RMK A01 T10061066  RH  064%=      5-min Rain = 0
KAM1 180508Z 21009KT M01/M07 A2997 RMK A01 T10061065  RH  064%=      5-min Rain = 0
KAM1 180509Z 21008KT M01/M07 A2997 RMK A01 T10061065  RH  064%=      5-min Rain = 0
KAM1 180510Z 21008KT M01/M07 A2997 RMK A01 T10061065  RH  064%=      5-min Rain = 0
KAM1 180511Z 21008KT M01/M06 A2997 RMK A01 T10051064  RH  064%=      5-min Rain = 0
KAM1 180512Z 22008KT M00/M06 A2997 RMK A01 T10041063  RH  064%=      5-min Rain = 0
KAM1 180513Z 22008KT M00/M06 A2997 RMK A01 T10041063  RH  064%=      5-min Rain = 0
KAM1 180514Z 22008KT M00/M06 A2997 RMK A01 T10031063  RH  064%=      5-min Rain = 0
KAM1 180515Z 21008KT M00/M06 A2997 RMK A01 T10031063  RH  064%=      5-min Rain = 0
KAM1 180516Z 22008KT M00/M06 A2997 RMK A01 T10031063  RH  064%=      5-min Rain = 0
KAM1 180517Z 21008KT M00/M06 A2997 RMK A01 T10031063  RH  064%=      5-min Rain = 0
KAM1 180518Z 21008KT M00/M06 A2997 RMK A01 T10031063  RH  064%=      5-min Rain = 0
KAM1 180519Z 21008KT M00/M06 A2997 RMK A01 T10031062  RH  064%=      5-min Rain = 0
KAM1 180520Z 22008KT M00/M06 A2997 RMK A01 T10031062  RH  064%=      5-min Rain = 0
KAM1 180521Z 21008KT M00/M06 A2997 RMK A01 T10031063  RH  064%=      5-min Rain = 0
KAM1 180522Z 21008KT M00/M06 A2997 RMK A01 T10031062  RH  064%=      5-min Rain = 0
KAM1 180523Z 21008KT M00/M06 A2997 RMK A01 T10031062  RH  065%=      5-min Rain = 0
KAM1 180524Z 21008KT M00/M06 A2997 RMK A01 T10031062  RH  065%=      5-min Rain = 0
KAM1 180525Z 21008KT M00/M06 A2996 RMK A01 T10031061  RH  065%=      5-min Rain = 0
KAM1 180526Z 21008KT M00/M06 A2996 RMK A01 T10021061  RH  065%=      5-min Rain = 0
KAM1 180527Z 21008KT M00/M06 A2996 RMK A01 T10021061  RH  065%=      5-min Rain = 0
KAM1 180528Z 21008KT M00/M06 A2996 RMK A01 T10021061  RH  065%=      5-min Rain = 0
KAM1 180529Z 21008KT M00/M06 A2996 RMK A01 T10021061  RH  065%=      5-min Rain = 0
KAM1 180530Z 21009KT M00/M06 A2996 RMK A01 T10021061  RH  065%=      5-min Rain = 0
KAM1 180531Z 22009KT M00/M06 A2997 RMK A01 T10021061  RH  065%=      5-min Rain = 0
KAM1 180532Z 22009KT M00/M06 A2997 RMK A01 T10021061  RH  065%=      5-min Rain = 0
KAM1 180533Z 21009KT M00/M06 A2996 RMK A01 T10011060  RH  065%=      5-min Rain = 0
KAM1 180534Z 22008KT M00/M06 A2996 RMK A01 T10011059  RH  065%=      5-min Rain = 0
KAM1 180535Z 22008KT M00/M06 A2996 RMK A01 T10011059  RH  065%=      5-min Rain = 0
KAM1 180536Z 21008KT M00/M06 A2996 RMK A01 T10011059  RH  065%=      5-min Rain = 0
KAM1 180537Z 21007KT 00/06 A2996 RMK A01 T00-00-59  RH  065%=      5-min Rain = 0
KAM1 180538Z 22008KT 00/06 A2996 RMK A01 T00-00-59  RH  064%=      5-min Rain = 0
KAM1 180539Z 22007KT M00/M06 A2996 RMK A01 T10011060  RH  064%=      5-min Rain = 0
KAM1 180540Z 22008KT M00/M06 A2996 RMK A01 T10021061  RH  065%=      5-min Rain = 0
KAM1 180541Z 21008KT M00/M06 A2996 RMK A01 T10031061  RH  065%=      5-min Rain = 0
KAM1 180542Z 21008KT M00/M06 A2996 RMK A01 T10031061  RH  065%=      5-min Rain = 0
KAM1 180543Z 22007KT M00/M06 A2996 RMK A01 T10041061  RH  065%=      5-min Rain = 0
KAM1 180544Z 21007KT M00/M06 A2996 RMK A01 T10041061  RH  065%=      5-min Rain = 0
KAM1 180545Z 21007KT M00/M06 A2996 RMK A01 T10041061  RH  065%=      5-min Rain = 0
KAM1 180546Z 21008KT M01/M06 A2996 RMK A01 T10051061  RH  066%=      5-min Rain = 0
KAM1 180547Z 21008KT M01/M06 A2996 RMK A01 T10051061  RH  066%=      5-min Rain = 0
KAM1 180548Z 21009KT M01/M06 A2996 RMK A01 T10051060  RH  066%=      5-min Rain = 0
KAM1 180549Z 21009KT M00/M06 A2996 RMK A01 T10041060  RH  066%=      5-min Rain = 0
KAM1 180550Z 21009KT M00/M06 A2996 RMK A01 T10031059  RH  066%=      5-min Rain = 0
KAM1 180551Z 21010KT M00/M06 A2996 RMK A01 T10031059  RH  066%=      5-min Rain = 0
KAM1 180552Z 21009KT M00/M06 A2996 RMK A01 T10021058  RH  066%=      5-min Rain = 0
KAM1 180553Z 21009KT M00/M06 A2995 RMK A01 T10011057  RH  066%=      5-min Rain = 0
KAM1 180554Z 21009KT 00/06 A2995 RMK A01 T00-00-57  RH  066%=      5-min Rain = 0
KAM1 180555Z 21009KT 00/06 A2995 RMK A01 T00-00-57  RH  065%=      5-min Rain = 0
KAM1 180556Z 21009KT 00/06 A2995 RMK A01 T00-00-58  RH  065%=      5-min Rain = 0
KAM1 180557Z 21010KT M00/M06 A2995 RMK A01 T10011057  RH  066%=      5-min Rain = 0
KAM1 180558Z 21009KT 00/06 A2995 RMK A01 T00-00-57  RH  066%=      5-min Rain = 0
KAM1 180559Z 21010KT 00/M06 A2995 RMK A01 T00011056  RH  065%=      5-min Rain = 0

Page generated in 0.0639 seconds.